Wetterdaten: Dienstag, 22.12.2020
Datum Zeit Temp. Aussen Temp. o. S. Temp +5cm Feuchte Auss Luftdruck Regen Sonnenschein Regendauer Solar Windben Empfang
22.12.2020 00:00 11,2 C 11,1 C 9,4 C 100 % 1009,0 hPa 0,0 l/m 0 min 0 min 0 W/m 29,0 km/h (5 Bft) 100,00 %
22.12.2020 00:02 11,2 C 11,1 C 9,4 C 100 % 1009,1 hPa 0,0 l/m 0 min 0 min 0 W/m 25,7 km/h (4 Bft) 97,56 %
22.12.2020 00:04 11,3 C 11,1 C 9,4 C 100 % 1009,1 hPa 0,0 l/m 0 min 0 min 0 W/m 22,5 km/h (4 Bft) 100,00 %
22.12.2020 00:08 11,4 C 10,6 C 9,4 C 100 % 1009,2 hPa 0,2 l/m 0 min 4 min 0 W/m 45,1 km/h (6 Bft) 98,97 %
22.12.2020 00:10 11,4 C 10,6 C 9,4 C 100 % 1009,0 hPa 0,0 l/m 0 min 2 min 0 W/m 12,9 km/h (3 Bft) 100,00 %
22.12.2020 00:12 11,4 C 10,6 C 9,4 C 100 % 1008,9 hPa 0,0 l/m 0 min 0 min 0 W/m 16,1 km/h (3 Bft) 100,00 %
22.12.2020 00:14 11,4 C 10,6 C 9,4 C 100 % 1008,8 hPa 0,0 l/m 0 min 0 min 0 W/m 25,7 km/h (4 Bft) 100,00 %
22.12.2020 00:16 11,5 C 11,1 C 9,4 C 100 % 1008,8 hPa 0,0 l/m 0 min 0 min 0 W/m 25,7 km/h (4 Bft) 95,74 %
22.12.2020 00:18 11,5 C 11,1 C 9,4 C 100 % 1008,8 hPa 0,0 l/m 0 min 0 min 0 W/m 32,2 km/h (5 Bft) 97,87 %
22.12.2020 00:20 11,5 C 11,7 C 9,9 C 100 % 1008,8 hPa 0,0 l/m 0 min 0 min 0 W/m 29,0 km/h (5 Bft) 97,83 %
22.12.2020 00:22 11,5 C 11,7 C 9,9 C 100 % 1008,7 hPa 0,0 l/m 0 min 0 min 0 W/m 32,2 km/h (5 Bft) 97,87 %
22.12.2020 00:24 11,6 C 11,7 C 9,9 C 100 % 1008,7 hPa 0,0 l/m 0 min 0 min 0 W/m 16,1 km/h (3 Bft) 97,87 %
22.12.2020 00:26 11,6 C 11,7 C 9,9 C 100 % 1008,7 hPa 0,0 l/m 0 min 0 min 0 W/m 25,7 km/h (4 Bft) 95,74 %
22.12.2020 00:28 11,6 C 11,7 C 9,9 C 100 % 1008,7 hPa 0,0 l/m 0 min 0 min 0 W/m 32,2 km/h (5 Bft) 98,11 %
22.12.2020 00:30 11,7 C 11,7 C 9,9 C 100 % 1008,7 hPa 0,0 l/m 0 min 0 min 0 W/m 29,0 km/h (5 Bft) 95,74 %
22.12.2020 00:32 11,8 C 11,7 C 9,9 C 100 % 1008,6 hPa 0,0 l/m 0 min 0 min 0 W/m 35,4 km/h (5 Bft) 97,83 %
22.12.2020 00:34 11,8 C 11,7 C 9,9 C 100 % 1008,6 hPa 0,0 l/m 0 min 0 min 0 W/m 29,0 km/h (5 Bft) 97,92 %
22.12.2020 00:36 11,8 C 11,7 C 9,9 C 100 % 1008,5 hPa 0,0 l/m 0 min 0 min 0 W/m 29,0 km/h (5 Bft) 97,87 %
22.12.2020 00:38 11,9 C 11,7 C 9,9 C 100 % 1008,8 hPa 0,0 l/m 0 min 0 min 0 W/m 48,3 km/h (6 Bft) 97,87 %
22.12.2020 00:40 11,9 C 12,2 C 9,9 C 100 % 1008,7 hPa 0,0 l/m 0 min 0 min 0 W/m 29,0 km/h (5 Bft) 97,87 %
22.12.2020 00:42 11,9 C 12,2 C 9,9 C 100 % 1008,7 hPa 0,0 l/m 0 min 0 min 0 W/m 35,4 km/h (5 Bft) 97,87 %
22.12.2020 00:44 11,9 C 12,2 C 9,9 C 100 % 1008,7 hPa 0,0 l/m 0 min 0 min 0 W/m 29,0 km/h (5 Bft) 97,83 %
22.12.2020 00:46 12,0 C 12,2 C 9,9 C 100 % 1008,7 hPa 0,0 l/m 0 min 0 min 0 W/m 29,0 km/h (5 Bft) 97,87 %
22.12.2020 00:48 12,0 C 12,2 C 9,9 C 100 % 1008,8 hPa 0,0 l/m 0 min 0 min 0 W/m 29,0 km/h (5 Bft) 95,74 %
22.12.2020 00:50 12,0 C 12,2 C 9,9 C 100 % 1008,8 hPa 0,0 l/m 0 min 0 min 0 W/m 38,6 km/h (5 Bft) 97,87 %
22.12.2020 00:52 12,1 C 12,2 C 9,9 C 99 % 1008,7 hPa 0,0 l/m 0 min 0 min 0 W/m 48,3 km/h (6 Bft) 97,87 %
22.12.2020 00:54 12,1 C 12,2 C 9,9 C 100 % 1008,7 hPa 0,0 l/m 0 min 0 min 0 W/m 35,4 km/h (5 Bft) 97,87 %
22.12.2020 00:56 12,1 C 12,2 C 9,9 C 99 % 1008,8 hPa 0,0 l/m 0 min 0 min 0 W/m 35,4 km/h (5 Bft) 95,65 %
22.12.2020 00:58 12,2 C 12,2 C 9,9 C 99 % 1008,9 hPa 0,0 l/m 0 min 0 min 0 W/m 35,4 km/h (5 Bft) 97,83 %
22.12.2020 01:00 12,3 C 12,2 C 9,9 C 99 % 1008,7 hPa 0,0 l/m 0 min 0 min 0 W/m 35,4 km/h (5 Bft) 100,00 %
22.12.2020 01:02 12,3 C 12,2 C 9,9 C 99 % 1008,6 hPa 0,0 l/m 0 min 0 min 0 W/m 29,0 km/h (5 Bft) 97,92 %
22.12.2020 01:04 12,3 C 12,2 C 9,9 C 99 % 1008,5 hPa 0,0 l/m 0 min 0 min 0 W/m 29,0 km/h (5 Bft) 97,87 %
22.12.2020 01:06 12,3 C 12,2 C 9,9 C 99 % 1008,4 hPa 0,0 l/m 0 min 0 min 0 W/m 22,5 km/h (4 Bft) 100,00 %
22.12.2020 01:08 12,4 C 12,2 C 9,9 C 99 % 1008,6 hPa 0,0 l/m 0 min 0 min 0 W/m 35,4 km/h (5 Bft) 100,00 %
22.12.2020 01:10 12,4 C 12,2 C 10,5 C 99 % 1008,4 hPa 0,0 l/m 0 min 0 min 0 W/m 32,2 km/h (5 Bft) 97,87 %
22.12.2020 01:12 12,4 C 12,2 C 10,5 C 98 % 1008,4 hPa 0,0 l/m 0 min 0 min 0 W/m 35,4 km/h (5 Bft) 97,87 %
22.12.2020 01:14 12,5 C 12,2 C 10,5 C 98 % 1008,5 hPa 0,0 l/m 0 min 0 min 0 W/m 48,3 km/h (6 Bft) 97,87 %
22.12.2020 01:16 12,5 C 12,2 C 10,5 C 98 % 1008,5 hPa 0,0 l/m 0 min 0 min 0 W/m 32,2 km/h (5 Bft) 97,87 %
22.12.2020 01:18 12,5 C 12,2 C 10,5 C 98 % 1008,4 hPa 0,0 l/m 0 min 0 min 0 W/m 38,6 km/h (5 Bft) 97,83 %
22.12.2020 01:20 12,6 C 12,2 C 10,5 C 98 % 1008,3 hPa 0,0 l/m 0 min 0 min 0 W/m 32,2 km/h (5 Bft) 97,87 %
22.12.2020 01:22 12,6 C 12,2 C 10,5 C 97 % 1008,3 hPa 0,0 l/m 0 min 0 min 0 W/m 35,4 km/h (5 Bft) 97,87 %
22.12.2020 01:24 12,6 C 12,8 C 10,5 C 97 % 1008,5 hPa 0,0 l/m 0 min 0 min 0 W/m 54,7 km/h (7 Bft) 97,87 %
22.12.2020 01:26 12,7 C 12,8 C 10,5 C 97 % 1008,3 hPa 0,0 l/m 0 min 0 min 0 W/m 35,4 km/h (5 Bft) 97,92 %
22.12.2020 01:28 12,8 C 12,8 C 10,5 C 97 % 1008,4 hPa 0,0 l/m 0 min 0 min 0 W/m 32,2 km/h (5 Bft) 97,87 %
22.12.2020 01:30 12,8 C 12,8 C 10,5 C 97 % 1008,3 hPa 0,0 l/m 0 min 0 min 0 W/m 41,8 km/h (6 Bft) 97,83 %
22.12.2020 01:32 12,9 C 12,8 C 10,5 C 96 % 1008,3 hPa 0,0 l/m 0 min 0 min 0 W/m 41,8 km/h (6 Bft) 97,92 %
22.12.2020 01:34 12,9 C 12,8 C 10,5 C 96 % 1008,3 hPa 0,0 l/m 0 min 0 min 0 W/m 25,7 km/h (4 Bft) 95,74 %
22.12.2020 01:36 12,9 C 12,8 C 10,5 C 96 % 1008,2 hPa 0,0 l/m 0 min 0 min 0 W/m 35,4 km/h (5 Bft) 97,87 %
22.12.2020 01:38 13,0 C 12,8 C 10,5 C 96 % 1008,1 hPa 0,0 l/m 0 min 0 min 0 W/m 38,6 km/h (5 Bft) 97,87 %
22.12.2020 01:40 13,0 C 12,8 C 10,5 C 96 % 1008,2 hPa 0,0 l/m 0 min 0 min 0 W/m 35,4 km/h (5 Bft) 97,87 %
22.12.2020 01:42 13,0 C 12,8 C 10,5 C 95 % 1008,4 hPa 0,0 l/m 0 min 0 min 0 W/m 45,1 km/h (6 Bft) 97,83 %
22.12.2020 01:44 13,1 C 12,8 C 10,5 C 95 % 1008,4 hPa 0,0 l/m 0 min 0 min 0 W/m 61,2 km/h (7 Bft) 95,74 %
22.12.2020 01:46 13,1 C 12,8 C 10,5 C 95 % 1008,5 hPa 0,0 l/m 0 min 0 min 0 W/m 41,8 km/h (6 Bft) 97,87 %
22.12.2020 01:48 13,2 C 12,8 C 10,5 C 95 % 1008,5 hPa 0,0 l/m 0 min 0 min 0 W/m 38,6 km/h (5 Bft) 97,87 %
22.12.2020 01:50 13,2 C 12,8 C 10,5 C 95 % 1008,6 hPa 0,0 l/m 0 min 0 min 0 W/m 48,3 km/h (6 Bft) 97,87 %
22.12.2020 01:52 13,3 C 12,8 C 10,5 C 95 % 1008,5 hPa 0,0 l/m 0 min 0 min 0 W/m 41,8 km/h (6 Bft) 97,87 %
22.12.2020 01:54 13,3 C 12,8 C 10,5 C 94 % 1008,5 hPa 0,0 l/m 0 min 0 min 0 W/m 41,8 km/h (6 Bft) 97,83 %
22.12.2020 01:56 13,3 C 12,8 C 10,5 C 94 % 1008,5 hPa 0,0 l/m 0 min 0 min 0 W/m 35,4 km/h (5 Bft) 100,00 %
22.12.2020 01:58 13,3 C 12,8 C 10,5 C 94 % 1008,5 hPa 0,0 l/m 0 min 0 min 0 W/m 41,8 km/h (6 Bft) 100,00 %
22.12.2020 02:00 13,3 C 12,8 C 10,5 C 94 % 1008,4 hPa 0,0 l/m 0 min 0 min 0 W/m 29,0 km/h (5 Bft) 100,00 %
22.12.2020 02:02 13,3 C 12,8 C 10,5 C 94 % 1008,5 hPa 0,0 l/m 0 min 0 min 0 W/m 32,2 km/h (5 Bft) 100,00 %
22.12.2020 02:04 13,3 C 12,8 C 11,1 C 94 % 1008,5 hPa 0,0 l/m 0 min 0 min 0 W/m 45,1 km/h (6 Bft) 100,00 %
22.12.2020 02:06 13,4 C 12,8 C 11,1 C 94 % 1008,4 hPa 0,0 l/m 0 min 0 min 0 W/m 57,9 km/h (7 Bft) 97,83 %
22.12.2020 02:08 13,4 C 12,8 C 11,1 C 94 % 1008,4 hPa 0,0 l/m 0 min 0 min 0 W/m 48,3 km/h (6 Bft) 100,00 %
22.12.2020 02:10 13,4 C 12,8 C 11,1 C 94 % 1008,4 hPa 0,0 l/m 0 min 0 min 0 W/m 61,2 km/h (7 Bft) 97,87 %
22.12.2020 02:12 13,5 C 12,8 C 11,1 C 94 % 1008,3 hPa 0,0 l/m 0 min 0 min 0 W/m 41,8 km/h (6 Bft) 100,00 %
22.12.2020 02:14 13,5 C 12,8 C 11,1 C 94 % 1008,3 hPa 0,0 l/m 0 min 0 min 0 W/m 32,2 km/h (5 Bft) 100,00 %
22.12.2020 02:16 13,5 C 12,8 C 11,1 C 93 % 1008,5 hPa 0,0 l/m 0 min 0 min 0 W/m 51,5 km/h (7 Bft) 100,00 %
22.12.2020 02:18 13,5 C 12,8 C 11,1 C 93 % 1008,4 hPa 0,0 l/m 0 min 0 min 0 W/m 48,3 km/h (6 Bft) 100,00 %
22.12.2020 02:20 13,6 C 12,8 C 11,1 C 93 % 1008,4 hPa 0,0 l/m 0 min 0 min 0 W/m 67,6 km/h (8 Bft) 100,00 %
22.12.2020 02:22 13,6 C 12,8 C 11,1 C 93 % 1008,4 hPa 0,0 l/m 0 min 0 min 0 W/m 51,5 km/h (7 Bft) 100,00 %
22.12.2020 02:24 13,6 C 12,8 C 11,1 C 93 % 1008,6 hPa 0,0 l/m 0 min 0 min 0 W/m 57,9 km/h (7 Bft) 100,00 %
22.12.2020 02:26 13,6 C 12,8 C 11,1 C 93 % 1008,5 hPa 0,0 l/m 0 min 0 min 0 W/m 48,3 km/h (6 Bft) 100,00 %
22.12.2020 02:28 13,6 C 12,8 C 11,1 C 93 % 1008,5 hPa 0,0 l/m 0 min 0 min 0 W/m 51,5 km/h (7 Bft) 97,83 %
22.12.2020 02:30 13,6 C 12,8 C 11,1 C 93 % 1008,5 hPa 0,0 l/m 0 min 0 min 0 W/m 38,6 km/h (5 Bft) 100,00 %
22.12.2020 02:32 13,6 C 12,8 C 11,1 C 93 % 1008,3 hPa 0,0 l/m 0 min 0 min 0 W/m 48,3 km/h (6 Bft) 100,00 %
22.12.2020 02:34 13,6 C 12,8 C 11,1 C 93 % 1008,3 hPa 0,0 l/m 0 min 0 min 0 W/m 35,4 km/h (5 Bft) 100,00 %
22.12.2020 02:36 13,6 C 12,8 C 11,1 C 93 % 1008,4 hPa 0,0 l/m 0 min 0 min 0 W/m 45,1 km/h (6 Bft) 97,87 %
22.12.2020 02:38 13,6 C 12,8 C 11,1 C 93 % 1008,4 hPa 0,0 l/m 0 min 0 min 0 W/m 45,1 km/h (6 Bft) 100,00 %
22.12.2020 02:40 13,5 C 12,8 C 11,1 C 94 % 1008,5 hPa 0,0 l/m 0 min 0 min 0 W/m 64,4 km/h (8 Bft) 100,00 %
22.12.2020 02:42 13,5 C 12,8 C 11,1 C 94 % 1008,4 hPa 0,0 l/m 0 min 0 min 0 W/m 45,1 km/h (6 Bft) 95,74 %
22.12.2020 02:44 13,5 C 12,8 C 11,1 C 94 % 1008,5 hPa 0,0 l/m 0 min 0 min 0 W/m 48,3 km/h (6 Bft) 97,87 %
22.12.2020 02:46 13,5 C 12,8 C 11,1 C 94 % 1008,3 hPa 0,0 l/m 0 min 0 min 0 W/m 45,1 km/h (6 Bft) 97,87 %
22.12.2020 02:48 13,5 C 12,8 C 11,1 C 94 % 1008,3 hPa 0,0 l/m 0 min 0 min 0 W/m 48,3 km/h (6 Bft) 100,00 %
22.12.2020 02:50 13,5 C 12,8 C 11,1 C 94 % 1008,4 hPa 0,0 l/m 0 min 0 min 0 W/m 57,9 km/h (7 Bft) 97,87 %
22.12.2020 02:52 13,5 C 12,8 C 11,1 C 94 % 1008,2 hPa 0,0 l/m 0 min 0 min 0 W/m 41,8 km/h (6 Bft) 97,83 %
22.12.2020 02:54 13,5 C 12,8 C 11,1 C 94 % 1008,3 hPa 0,0 l/m 0 min 0 min 0 W/m 51,5 km/h (7 Bft) 97,87 %
22.12.2020 02:56 13,5 C 12,8 C 11,1 C 94 % 1008,3 hPa 0,0 l/m 0 min 0 min 0 W/m 57,9 km/h (7 Bft) 97,87 %
22.12.2020 02:58 13,5 C 12,8 C 11,1 C 94 % 1008,3 hPa 0,0 l/m 0 min 0 min 0 W/m 45,1 km/h (6 Bft) 95,74 %
22.12.2020 03:00 13,5 C 12,8 C 11,1 C 94 % 1008,4 hPa 0,0 l/m 0 min 0 min 0 W/m 51,5 km/h (7 Bft) 95,74 %
22.12.2020 03:02 13,5 C 12,8 C 11,1 C 94 % 1008,3 hPa 0,0 l/m 0 min 0 min 0 W/m 45,1 km/h (6 Bft) 95,92 %
22.12.2020 03:04 13,5 C 12,8 C 11,1 C 94 % 1008,4 hPa 0,0 l/m 0 min 0 min 0 W/m 54,7 km/h (7 Bft) 93,62 %
22.12.2020 03:06 13,5 C 12,8 C 11,1 C 94 % 1008,3 hPa 0,0 l/m 0 min 0 min 0 W/m 48,3 km/h (6 Bft) 95,74 %
22.12.2020 03:08 13,5 C 12,8 C 11,1 C 94 % 1008,5 hPa 0,0 l/m 0 min 0 min 0 W/m 51,5 km/h (7 Bft) 95,74 %
22.12.2020 03:10 13,5 C 12,2 C 11,1 C 94 % 1008,5 hPa 0,0 l/m 0 min 0 min 0 W/m 45,1 km/h (6 Bft) 95,74 %
22.12.2020 03:12 13,5 C 12,2 C 11,1 C 94 % 1008,4 hPa 0,0 l/m 0 min 0 min 0 W/m 51,5 km/h (7 Bft) 95,83 %
22.12.2020 03:14 13,5 C 12,2 C 10,5 C 94 % 1008,5 hPa 0,0 l/m 0 min 0 min 0 W/m 38,6 km/h (5 Bft) 94,44 %
22.12.2020 03:16 13,5 C 12,8 C 11,1 C 94 % 1008,7 hPa 0,0 l/m 0 min 0 min 0 W/m 57,9 km/h (7 Bft) 95,65 %
22.12.2020 03:18 13,4 C 12,8 C 11,1 C 94 % 1008,5 hPa 0,0 l/m 0 min 0 min 0 W/m 54,7 km/h (7 Bft) 95,83 %
22.12.2020 03:20 13,4 C 12,8 C 11,1 C 94 % 1008,3 hPa 0,0 l/m 0 min 0 min 0 W/m 32,2 km/h (5 Bft) 93,62 %
22.12.2020 03:22 13,4 C 12,8 C 11,1 C 95 % 1008,3 hPa 0,0 l/m 0 min 0 min 0 W/m 48,3 km/h (6 Bft) 93,62 %
22.12.2020 03:24 13,4 C 12,8 C 11,1 C 95 % 1008,4 hPa 0,0 l/m 0 min 0 min 0 W/m 48,3 km/h (6 Bft) 95,74 %
22.12.2020 03:26 13,4 C 12,8 C 11,1 C 95 % 1008,3 hPa 0,0 l/m 0 min 0 min 0 W/m 54,7 km/h (7 Bft) 93,62 %
22.12.2020 03:28 13,4 C 12,8 C 11,1 C 95 % 1008,4 hPa 0,0 l/m 0 min 0 min 0 W/m 64,4 km/h (8 Bft) 95,65 %
22.12.2020 03:30 13,4 C 12,2 C 11,1 C 95 % 1008,3 hPa 0,0 l/m 0 min 0 min 0 W/m 54,7 km/h (7 Bft) 95,74 %
22.12.2020 03:32 13,4 C 12,2 C 11,1 C 95 % 1008,2 hPa 0,0 l/m 0 min 0 min 0 W/m 38,6 km/h (5 Bft) 95,74 %
22.12.2020 03:34 13,4 C 12,2 C 11,1 C 95 % 1008,2 hPa 0,0 l/m 0 min 0 min 0 W/m 67,6 km/h (8 Bft) 93,62 %
22.12.2020 03:36 13,4 C 12,8 C 11,1 C 95 % 1008,5 hPa 0,0 l/m 0 min 0 min 0 W/m 54,7 km/h (7 Bft) 95,74 %
22.12.2020 03:38 13,4 C 12,8 C 11,1 C 95 % 1008,5 hPa 0,0 l/m 0 min 0 min 0 W/m 45,1 km/h (6 Bft) 95,74 %
22.12.2020 03:40 13,4 C 12,8 C 11,1 C 95 % 1008,4 hPa 0,0 l/m 0 min 0 min 0 W/m 51,5 km/h (7 Bft) 95,65 %
22.12.2020 03:42 13,4 C 12,8 C 11,1 C 95 % 1008,3 hPa 0,0 l/m 0 min 0 min 0 W/m 32,2 km/h (5 Bft) 93,62 %
22.12.2020 03:44 13,4 C 12,8 C 11,1 C 95 % 1008,3 hPa 0,0 l/m 0 min 0 min 0 W/m 41,8 km/h (6 Bft) 95,74 %
22.12.2020 03:46 13,4 C 12,8 C 11,1 C 95 % 1008,3 hPa 0,0 l/m 0 min 0 min 0 W/m 48,3 km/h (6 Bft) 98,15 %
22.12.2020 03:48 13,4 C 12,8 C 11,1 C 95 % 1008,3 hPa 0,0 l/m 0 min 0 min 0 W/m 48,3 km/h (6 Bft) 97,87 %
22.12.2020 03:50 13,4 C 12,8 C 11,6 C 95 % 1008,4 hPa 0,0 l/m 0 min 0 min 0 W/m 51,5 km/h (7 Bft) 95,65 %
22.12.2020 03:52 13,4 C 12,8 C 11,6 C 95 % 1008,4 hPa 0,0 l/m 0 min 0 min 0 W/m 54,7 km/h (7 Bft) 95,74 %
22.12.2020 03:54 13,5 C 12,8 C 11,6 C 95 % 1008,3 hPa 0,0 l/m 0 min 0 min 0 W/m 48,3 km/h (6 Bft) 95,74 %
22.12.2020 03:56 13,5 C 12,8 C 11,6 C 95 % 1008,4 hPa 0,0 l/m 0 min 0 min 0 W/m 48,3 km/h (6 Bft) 96,00 %
22.12.2020 03:58 13,5 C 12,8 C 11,6 C 95 % 1008,5 hPa 0,0 l/m 0 min 0 min 0 W/m 41,8 km/h (6 Bft) 93,62 %
22.12.2020 04:00 13,5 C 12,8 C 11,6 C 95 % 1008,4 hPa 0,0 l/m 0 min 0 min 0 W/m 38,6 km/h (5 Bft) 94,74 %
22.12.2020 04:05 13,5 C 12,8 C 11,6 C 95 % 1008,3 hPa 0,0 l/m 0 min 0 min 0 W/m 57,9 km/h (7 Bft) 94,92 %
22.12.2020 04:06 13,5 C 12,8 C 11,6 C 95 % 1008,3 hPa 0,0 l/m 0 min 0 min 0 W/m 35,4 km/h (5 Bft) 95,65 %
22.12.2020 04:08 13,6 C 12,8 C 11,6 C 95 % 1008,5 hPa 0,0 l/m 0 min 0 min 0 W/m 57,9 km/h (7 Bft) 95,74 %
22.12.2020 04:10 13,6 C 12,8 C 11,6 C 95 % 1008,4 hPa 0,0 l/m 0 min 0 min 0 W/m 45,1 km/h (6 Bft) 95,74 %
22.12.2020 04:12 13,6 C 12,8 C 11,6 C 95 % 1008,2 hPa 0,0 l/m 0 min 0 min 0 W/m 61,2 km/h (7 Bft) 95,74 %
22.12.2020 04:14 13,6 C 13,3 C 11,6 C 95 % 1008,3 hPa 0,0 l/m 0 min 0 min 0 W/m 90,1 km/h (10 Bft) 97,83 %
22.12.2020 04:16 13,6 C 13,3 C 11,6 C 95 % 1008,5 hPa 0,0 l/m 0 min 0 min 0 W/m 61,2 km/h (7 Bft) 95,74 %
22.12.2020 04:18 13,6 C 13,3 C 11,6 C 95 % 1008,3 hPa 0,0 l/m 0 min 0 min 0 W/m 51,5 km/h (7 Bft) 95,74 %
22.12.2020 04:20 13,6 C 13,3 C 11,6 C 95 % 1008,5 hPa 0,0 l/m 0 min 0 min 0 W/m 41,8 km/h (6 Bft) 95,74 %
22.12.2020 04:22 13,6 C 13,3 C 11,6 C 95 % 1008,3 hPa 0,0 l/m 0 min 0 min 0 W/m 51,5 km/h (7 Bft) 93,62 %
22.12.2020 04:24 13,7 C 12,8 C 11,6 C 95 % 1008,4 hPa 0,0 l/m 0 min 0 min 0 W/m 48,3 km/h (6 Bft) 95,65 %
22.12.2020 04:26 13,7 C 12,8 C 11,6 C 94 % 1008,5 hPa 0,0 l/m 0 min 0 min 0 W/m 45,1 km/h (6 Bft) 95,74 %
22.12.2020 04:28 13,7 C 12,8 C 11,6 C 94 % 1008,4 hPa 0,0 l/m 0 min 0 min 0 W/m 41,8 km/h (6 Bft) 93,62 %
22.12.2020 04:30 13,7 C 12,8 C 11,6 C 94 % 1008,5 hPa 0,0 l/m 0 min 0 min 0 W/m 41,8 km/h (6 Bft) 95,74 %
22.12.2020 04:32 13,7 C 12,8 C 11,6 C 94 % 1008,5 hPa 0,0 l/m 0 min 0 min 0 W/m 45,1 km/h (6 Bft) 95,83 %
22.12.2020 04:34 13,7 C 12,8 C 11,6 C 94 % 1008,5 hPa 0,0 l/m 0 min 0 min 0 W/m 41,8 km/h (6 Bft) 95,74 %
22.12.2020 04:36 13,7 C 13,3 C 11,6 C 94 % 1008,4 hPa 0,0 l/m 0 min 0 min 0 W/m 38,6 km/h (5 Bft) 95,65 %
22.12.2020 04:38 13,7 C 13,3 C 11,6 C 94 % 1008,5 hPa 0,0 l/m 0 min 0 min 0 W/m 41,8 km/h (6 Bft) 95,74 %
22.12.2020 04:40 13,7 C 13,3 C 11,6 C 94 % 1008,5 hPa 0,0 l/m 0 min 0 min 0 W/m 57,9 km/h (7 Bft) 97,87 %
22.12.2020 04:42 13,7 C 13,3 C 11,6 C 94 % 1008,7 hPa 0,0 l/m 0 min 0 min 0 W/m 38,6 km/h (5 Bft) 97,87 %
22.12.2020 04:44 13,7 C 13,3 C 11,6 C 94 % 1008,5 hPa 0,0 l/m 0 min 0 min 0 W/m 48,3 km/h (6 Bft) 97,87 %
22.12.2020 04:46 13,7 C 13,3 C 11,6 C 94 % 1008,5 hPa 0,0 l/m 0 min 0 min 0 W/m 45,1 km/h (6 Bft) 97,87 %
22.12.2020 04:48 13,7 C 12,8 C 11,6 C 94 % 1008,7 hPa 0,0 l/m 0 min 0 min 0 W/m 35,4 km/h (5 Bft) 97,83 %
22.12.2020 04:50 13,8 C 12,8 C 11,6 C 94 % 1008,5 hPa 0,0 l/m 0 min 0 min 0 W/m 32,2 km/h (5 Bft) 97,87 %
22.12.2020 04:52 13,7 C 12,8 C 11,6 C 94 % 1008,6 hPa 0,0 l/m 0 min 0 min 0 W/m 22,5 km/h (4 Bft) 97,87 %
22.12.2020 04:54 13,7 C 12,8 C 11,6 C 94 % 1008,8 hPa 0,0 l/m 0 min 0 min 0 W/m 35,4 km/h (5 Bft) 95,74 %
22.12.2020 04:56 13,7 C 12,8 C 11,6 C 94 % 1008,6 hPa 0,0 l/m 0 min 0 min 0 W/m 61,2 km/h (7 Bft) 97,87 %
22.12.2020 04:58 13,7 C 13,3 C 11,6 C 94 % 1008,6 hPa 0,0 l/m 0 min 0 min 0 W/m 61,2 km/h (7 Bft) 97,87 %
22.12.2020 05:00 13,7 C 13,3 C 11,6 C 94 % 1008,7 hPa 0,0 l/m 0 min 0 min 0 W/m 45,1 km/h (6 Bft) 97,83 %
22.12.2020 05:02 13,7 C 12,8 C 11,6 C 94 % 1008,6 hPa 0,0 l/m 0 min 0 min 0 W/m 41,8 km/h (6 Bft) 97,92 %
22.12.2020 05:04 13,7 C 13,3 C 11,6 C 94 % 1008,7 hPa 0,0 l/m 0 min 0 min 0 W/m 51,5 km/h (7 Bft) 97,78 %
22.12.2020 05:06 13,8 C 13,3 C 11,6 C 94 % 1008,6 hPa 0,0 l/m 0 min 0 min 0 W/m 54,7 km/h (7 Bft) 97,87 %
22.12.2020 05:08 13,7 C 12,8 C 11,6 C 94 % 1008,6 hPa 0,0 l/m 0 min 0 min 0 W/m 54,7 km/h (7 Bft) 95,74 %
22.12.2020 05:10 13,8 C 12,8 C 11,6 C 94 % 1008,5 hPa 0,0 l/m 0 min 0 min 0 W/m 35,4 km/h (5 Bft) 98,00 %
22.12.2020 05:12 13,8 C 12,8 C 11,6 C 94 % 1008,7 hPa 0,0 l/m 0 min 0 min 0 W/m 45,1 km/h (6 Bft) 97,83 %
22.12.2020 05:14 13,7 C 12,8 C 11,6 C 94 % 1008,6 hPa 0,0 l/m 0 min 0 min 0 W/m 64,4 km/h (8 Bft) 95,74 %
22.12.2020 05:16 13,7 C 12,8 C 11,6 C 94 % 1008,7 hPa 0,0 l/m 0 min 0 min 0 W/m 48,3 km/h (6 Bft) 97,87 %
22.12.2020 05:18 13,7 C 12,8 C 11,6 C 94 % 1008,5 hPa 0,0 l/m 0 min 0 min 0 W/m 38,6 km/h (5 Bft) 97,87 %
22.12.2020 05:20 13,6 C 12,8 C 11,6 C 94 % 1008,6 hPa 0,0 l/m 0 min 0 min 0 W/m 51,5 km/h (7 Bft) 97,87 %
22.12.2020 05:22 13,6 C 12,8 C 11,6 C 94 % 1008,6 hPa 0,0 l/m 0 min 0 min 0 W/m 67,6 km/h (8 Bft) 97,87 %
22.12.2020 05:24 13,7 C 12,8 C 11,6 C 94 % 1008,7 hPa 0,0 l/m 0 min 0 min 0 W/m 45,1 km/h (6 Bft) 97,83 %
22.12.2020 05:26 13,6 C 12,8 C 11,6 C 94 % 1008,7 hPa 0,0 l/m 0 min 0 min 0 W/m 41,8 km/h (6 Bft) 97,87 %
22.12.2020 05:28 13,6 C 12,8 C 11,6 C 94 % 1008,6 hPa 0,0 l/m 0 min 0 min 0 W/m 45,1 km/h (6 Bft) 97,96 %
22.12.2020 05:30 13,6 C 12,8 C 11,6 C 94 % 1008,7 hPa 0,0 l/m 0 min 0 min 0 W/m 51,5 km/h (7 Bft) 97,87 %
22.12.2020 05:32 13,6 C 12,8 C 11,6 C 95 % 1008,7 hPa 0,0 l/m 0 min 0 min 0 W/m 45,1 km/h (6 Bft) 97,14 %
22.12.2020 05:34 13,6 C 12,8 C 11,6 C 95 % 1008,7 hPa 0,0 l/m 0 min 0 min 0 W/m 38,6 km/h (5 Bft) 98,28 %
22.12.2020 05:36 13,6 C 12,8 C 11,6 C 95 % 1008,8 hPa 0,0 l/m 0 min 0 min 0 W/m 61,2 km/h (7 Bft) 97,87 %
22.12.2020 05:38 13,6 C 12,8 C 11,6 C 95 % 1008,8 hPa 0,0 l/m 0 min 0 min 0 W/m 61,2 km/h (7 Bft) 97,87 %
22.12.2020 05:40 13,6 C 12,8 C 11,6 C 95 % 1008,8 hPa 0,0 l/m 0 min 0 min 0 W/m 32,2 km/h (5 Bft) 94,29 %
22.12.2020 05:42 13,6 C 12,8 C 11,6 C 95 % 1008,9 hPa 0,0 l/m 0 min 0 min 0 W/m 48,3 km/h (6 Bft) 94,92 %
22.12.2020 05:44 13,6 C 12,8 C 11,6 C 95 % 1008,9 hPa 0,0 l/m 0 min 0 min 0 W/m 54,7 km/h (7 Bft) 94,29 %
22.12.2020 05:46 13,6 C 12,8 C 11,6 C 95 % 1008,9 hPa 0,0 l/m 0 min 0 min 0 W/m 35,4 km/h (5 Bft) 93,62 %
22.12.2020 05:48 13,6 C 12,8 C 11,6 C 95 % 1008,9 hPa 0,0 l/m 0 min 0 min 0 W/m 35,4 km/h (5 Bft) 97,87 %
22.12.2020 05:50 13,6 C 12,8 C 11,6 C 95 % 1008,9 hPa 0,0 l/m 0 min 0 min 0 W/m 32,2 km/h (5 Bft) 97,83 %
22.12.2020 05:52 13,6 C 12,8 C 11,6 C 95 % 1008,9 hPa 0,0 l/m 0 min 0 min 0 W/m 35,4 km/h (5 Bft) 97,87 %
22.12.2020 05:54 13,6 C 12,8 C 11,6 C 95 % 1008,9 hPa 0,0 l/m 0 min 0 min 0 W/m 25,7 km/h (4 Bft) 97,87 %
22.12.2020 05:56 13,6 C 12,8 C 11,6 C 95 % 1009,0 hPa 0,0 l/m 0 min 0 min 0 W/m 32,2 km/h (5 Bft) 97,87 %
22.12.2020 05:58 13,6 C 12,8 C 11,6 C 95 % 1009,0 hPa 0,0 l/m 0 min 0 min 0 W/m 48,3 km/h (6 Bft) 97,87 %
22.12.2020 06:00 13,6 C 12,8 C 11,6 C 95 % 1009,1 hPa 0,0 l/m 0 min 0 min 0 W/m 35,4 km/h (5 Bft) 97,83 %
22.12.2020 06:02 13,6 C 12,8 C 11,6 C 95 % 1009,1 hPa 0,0 l/m 0 min 0 min 0 W/m 29,0 km/h (5 Bft) 95,74 %
22.12.2020 06:04 13,6 C 12,8 C 11,6 C 95 % 1009,1 hPa 0,0 l/m 0 min 0 min 0 W/m 48,3 km/h (6 Bft) 97,87 %
22.12.2020 06:08 13,6 C 12,8 C 11,1 C 95 % 1009,0 hPa 0,0 l/m 0 min 0 min 0 W/m 45,1 km/h (6 Bft) 95,74 %
22.12.2020 06:10 13,6 C 12,8 C 11,1 C 95 % 1009,1 hPa 0,0 l/m 0 min 0 min 0 W/m 38,6 km/h (5 Bft) 97,87 %
22.12.2020 06:12 13,6 C 12,8 C 11,1 C 95 % 1009,1 hPa 0,0 l/m 0 min 0 min 0 W/m 32,2 km/h (5 Bft) 95,65 %
22.12.2020 06:14 13,6 C 12,8 C 11,1 C 95 % 1009,2 hPa 0,0 l/m 0 min 0 min 0 W/m 35,4 km/h (5 Bft) 95,74 %
22.12.2020 06:16 13,6 C 12,2 C 11,1 C 95 % 1009,2 hPa 0,0 l/m 0 min 0 min 0 W/m 51,5 km/h (7 Bft) 97,87 %
22.12.2020 06:18 13,6 C 12,2 C 11,1 C 95 % 1009,1 hPa 0,0 l/m 0 min 0 min 0 W/m 41,8 km/h (6 Bft) 97,87 %
22.12.2020 06:20 13,6 C 12,2 C 11,1 C 95 % 1009,1 hPa 0,0 l/m 0 min 0 min 0 W/m 38,6 km/h (5 Bft) 95,74 %
22.12.2020 06:22 13,6 C 12,2 C 11,1 C 95 % 1009,3 hPa 0,0 l/m 0 min 0 min 0 W/m 41,8 km/h (6 Bft) 97,87 %
22.12.2020 06:24 13,6 C 12,2 C 11,1 C 95 % 1009,2 hPa 0,0 l/m 0 min 0 min 0 W/m 35,4 km/h (5 Bft) 97,83 %
22.12.2020 06:26 13,6 C 12,2 C 11,1 C 95 % 1009,3 hPa 0,0 l/m 0 min 2 min 0 W/m 41,8 km/h (6 Bft) 100,00 %
22.12.2020 06:28 13,6 C 12,2 C 11,1 C 95 % 1009,2 hPa 0,0 l/m 0 min 2 min 0 W/m 29,0 km/h (5 Bft) 97,87 %
22.12.2020 06:30 13,6 C 12,2 C 11,1 C 96 % 1009,2 hPa 0,0 l/m 0 min 0 min 0 W/m 41,8 km/h (6 Bft) 97,87 %
22.12.2020 06:32 13,5 C 12,2 C 11,1 C 96 % 1009,3 hPa 0,0 l/m 0 min 2 min 0 W/m 35,4 km/h (5 Bft) 100,00 %
22.12.2020 06:34 13,5 C 12,8 C 11,1 C 96 % 1009,3 hPa 0,0 l/m 0 min 0 min 0 W/m 32,2 km/h (5 Bft) 97,83 %
22.12.2020 06:36 13,5 C 12,8 C 11,1 C 96 % 1009,3 hPa 0,0 l/m 0 min 0 min 0 W/m 35,4 km/h (5 Bft) 100,00 %
22.12.2020 06:38 13,5 C 12,8 C 11,1 C 96 % 1009,5 hPa 0,0 l/m 0 min 0 min 0 W/m 32,2 km/h (5 Bft) 97,87 %
22.12.2020 06:40 13,5 C 12,8 C 11,1 C 96 % 1009,3 hPa 0,0 l/m 0 min 0 min 0 W/m 45,1 km/h (6 Bft) 97,87 %
22.12.2020 06:42 13,5 C 12,8 C 11,1 C 96 % 1009,4 hPa 0,0 l/m 0 min 0 min 0 W/m 35,4 km/h (5 Bft) 95,74 %
22.12.2020 06:44 13,5 C 12,8 C 11,1 C 96 % 1009,3 hPa 0,0 l/m 0 min 0 min 0 W/m 25,7 km/h (4 Bft) 95,74 %
22.12.2020 06:46 13,5 C 12,8 C 11,1 C 96 % 1009,5 hPa 0,0 l/m 0 min 2 min 0 W/m 48,3 km/h (6 Bft) 97,83 %
22.12.2020 06:48 13,5 C 12,2 C 11,1 C 96 % 1009,4 hPa 0,0 l/m 0 min 0 min 0 W/m 48,3 km/h (6 Bft) 97,87 %
22.12.2020 06:50 13,5 C 12,2 C 11,1 C 96 % 1009,4 hPa 0,0 l/m 0 min 2 min 0 W/m 32,2 km/h (5 Bft) 97,87 %
22.12.2020 06:52 13,5 C 12,2 C 11,1 C 96 % 1009,4 hPa 0,0 l/m 0 min 0 min 0 W/m 32,2 km/h (5 Bft) 97,87 %
22.12.2020 06:54 13,5 C 12,2 C 11,1 C 96 % 1009,4 hPa 0,0 l/m 0 min 0 min 0 W/m 29,0 km/h (5 Bft) 97,87 %
22.12.2020 06:56 13,5 C 12,2 C 11,1 C 96 % 1009,5 hPa 0,0 l/m 0 min 0 min 0 W/m 45,1 km/h (6 Bft) 98,11 %
22.12.2020 06:58 13,5 C 12,2 C 11,1 C 96 % 1009,5 hPa 0,0 l/m 0 min 0 min 0 W/m 25,7 km/h (4 Bft) 95,74 %
22.12.2020 07:00 13,5 C 12,8 C 11,1 C 96 % 1009,5 hPa 0,0 l/m 0 min 0 min 0 W/m 45,1 km/h (6 Bft) 95,74 %
22.12.2020 07:02 13,5 C 12,8 C 11,1 C 96 % 1009,5 hPa 0,0 l/m 0 min 2 min 0 W/m 32,2 km/h (5 Bft) 97,92 %
22.12.2020 07:04 13,5 C 12,2 C 11,1 C 96 % 1009,5 hPa 0,0 l/m 0 min 2 min 0 W/m 25,7 km/h (4 Bft) 97,87 %
22.12.2020 07:06 13,5 C 12,2 C 11,1 C 96 % 1009,7 hPa 0,0 l/m 0 min 2 min 0 W/m 29,0 km/h (5 Bft) 97,87 %
22.12.2020 07:08 13,5 C 12,2 C 11,1 C 96 % 1009,7 hPa 0,0 l/m 0 min 2 min 0 W/m 25,7 km/h (4 Bft) 96,00 %
22.12.2020 07:10 13,5 C 12,2 C 11,1 C 96 % 1009,7 hPa 0,0 l/m 0 min 2 min 0 W/m 48,3 km/h (6 Bft) 100,00 %
22.12.2020 07:12 13,5 C 12,2 C 11,1 C 96 % 1009,8 hPa 0,0 l/m 0 min 2 min 0 W/m 35,4 km/h (5 Bft) 97,87 %
22.12.2020 07:14 13,5 C 12,2 C 11,1 C 96 % 1009,7 hPa 0,0 l/m 0 min 2 min 0 W/m 29,0 km/h (5 Bft) 95,74 %
22.12.2020 07:16 13,5 C 12,2 C 11,1 C 96 % 1009,7 hPa 0,0 l/m 0 min 2 min 0 W/m 29,0 km/h (5 Bft) 97,87 %
22.12.2020 07:18 13,5 C 12,8 C 11,1 C 96 % 1009,7 hPa 0,0 l/m 0 min 2 min 0 W/m 38,6 km/h (5 Bft) 97,87 %
22.12.2020 07:20 13,5 C 12,8 C 11,1 C 96 % 1009,7 hPa 0,0 l/m 0 min 2 min 0 W/m 38,6 km/h (5 Bft) 97,87 %
22.12.2020 07:22 13,5 C 12,8 C 11,1 C 96 % 1009,7 hPa 0,0 l/m 0 min 2 min 0 W/m 41,8 km/h (6 Bft) 95,65 %
22.12.2020 07:24 13,5 C 12,8 C 11,1 C 96 % 1009,8 hPa 0,0 l/m 0 min 2 min 0 W/m 41,8 km/h (6 Bft) 97,87 %
22.12.2020 07:26 13,5 C 12,8 C 11,1 C 96 % 1009,9 hPa 0,0 l/m 0 min 2 min 0 W/m 41,8 km/h (6 Bft) 100,00 %
22.12.2020 07:28 13,5 C 12,8 C 11,1 C 96 % 1009,9 hPa 0,0 l/m 0 min 2 min 0 W/m 32,2 km/h (5 Bft) 100,00 %
22.12.2020 07:30 13,5 C 13,3 C 11,1 C 96 % 1009,9 hPa 0,0 l/m 0 min 2 min 0 W/m 41,8 km/h (6 Bft) 97,87 %
22.12.2020 07:32 13,6 C 12,8 C 11,1 C 96 % 1009,9 hPa 0,0 l/m 0 min 2 min 0 W/m 29,0 km/h (5 Bft) 97,87 %
22.12.2020 07:34 13,6 C 12,8 C 11,1 C 96 % 1009,9 hPa 0,0 l/m 0 min 2 min 0 W/m 35,4 km/h (5 Bft) 100,00 %
22.12.2020 07:36 13,6 C 12,2 C 11,1 C 96 % 1009,9 hPa 0,0 l/m 0 min 2 min 0 W/m 12,9 km/h (3 Bft) 100,00 %
22.12.2020 07:38 13,6 C 12,2 C 11,1 C 96 % 1009,9 hPa 0,0 l/m 0 min 2 min 0 W/m 38,6 km/h (5 Bft) 100,00 %
22.12.2020 07:40 13,6 C 12,8 C 11,1 C 96 % 1010,0 hPa 0,0 l/m 0 min 0 min 0 W/m 19,3 km/h (3 Bft) 100,00 %
22.12.2020 07:42 13,6 C 12,8 C 11,1 C 96 % 1009,9 hPa 0,0 l/m 0 min 0 min 0 W/m 38,6 km/h (5 Bft) 100,00 %
22.12.2020 07:44 13,5 C 12,8 C 11,1 C 96 % 1009,9 hPa 0,0 l/m 0 min 0 min 0 W/m 35,4 km/h (5 Bft) 100,00 %
22.12.2020 07:46 13,5 C 12,8 C 11,1 C 96 % 1010,0 hPa 0,0 l/m 0 min 0 min 0 W/m 32,2 km/h (5 Bft) 97,92 %
22.12.2020 07:48 13,5 C 12,8 C 11,6 C 96 % 1010,0 hPa 0,0 l/m 0 min 0 min 0 W/m 54,7 km/h (7 Bft) 97,87 %
22.12.2020 07:50 13,5 C 12,8 C 11,6 C 96 % 1010,0 hPa 0,0 l/m 0 min 0 min 0 W/m 29,0 km/h (5 Bft) 100,00 %
22.12.2020 07:52 13,5 C 13,3 C 11,6 C 96 % 1010,1 hPa 0,0 l/m 0 min 0 min 0 W/m 35,4 km/h (5 Bft) 95,74 %
22.12.2020 07:54 13,5 C 13,3 C 11,6 C 96 % 1010,1 hPa 0,0 l/m 0 min 0 min 0 W/m 29,0 km/h (5 Bft) 100,00 %
22.12.2020 07:56 13,5 C 12,8 C 11,6 C 96 % 1010,0 hPa 0,0 l/m 0 min 0 min 0 W/m 25,7 km/h (4 Bft) 100,00 %
22.12.2020 07:58 13,5 C 12,8 C 11,6 C 96 % 1010,1 hPa 0,0 l/m 0 min 0 min 0 W/m 35,4 km/h (5 Bft) 100,00 %
22.12.2020 08:00 13,6 C 12,8 C 11,6 C 95 % 1010,1 hPa 0,0 l/m 0 min 0 min 0 W/m 25,7 km/h (4 Bft) 100,00 %
22.12.2020 08:02 13,6 C 12,8 C 11,6 C 95 % 1010,2 hPa 0,0 l/m 0 min 0 min 0 W/m 29,0 km/h (5 Bft) 100,00 %
22.12.2020 08:04 13,6 C 12,8 C 11,6 C 95 % 1010,2 hPa 0,0 l/m 0 min 0 min 0 W/m 25,7 km/h (4 Bft) 100,00 %
22.12.2020 08:06 13,6 C 12,8 C 11,6 C 95 % 1010,2 hPa 0,0 l/m 0 min 0 min 0 W/m 22,5 km/h (4 Bft) 97,83 %
22.12.2020 08:08 13,6 C 12,8 C 11,6 C 95 % 1010,1 hPa 0,0 l/m 0 min 0 min 0 W/m 35,4 km/h (5 Bft) 100,00 %
22.12.2020 08:10 13,6 C 12,8 C 11,6 C 95 % 1010,2 hPa 0,0 l/m 0 min 0 min 0 W/m 25,7 km/h (4 Bft) 100,00 %
22.12.2020 08:12 13,6 C 12,8 C 11,6 C 95 % 1010,2 hPa 0,0 l/m 0 min 0 min 0 W/m 41,8 km/h (6 Bft) 100,00 %
22.12.2020 08:14 13,6 C 12,8 C 11,6 C 95 % 1010,1 hPa 0,0 l/m 0 min 0 min 0 W/m 61,2 km/h (7 Bft) 100,00 %
22.12.2020 08:16 13,5 C 12,8 C 11,6 C 95 % 1010,3 hPa 0,0 l/m 0 min 0 min 0 W/m 35,4 km/h (5 Bft) 97,83 %
22.12.2020 08:18 13,6 C 12,8 C 11,6 C 95 % 1010,2 hPa 0,0 l/m 0 min 0 min 0 W/m 41,8 km/h (6 Bft) 100,00 %
22.12.2020 08:20 13,5 C 12,8 C 11,6 C 95 % 1010,3 hPa 0,0 l/m 0 min 0 min 0 W/m 32,2 km/h (5 Bft) 95,74 %
22.12.2020 08:22 13,5 C 12,8 C 11,1 C 95 % 1010,3 hPa 0,0 l/m 0 min 0 min 0 W/m 25,7 km/h (4 Bft) 95,74 %
22.12.2020 08:24 13,5 C 12,8 C 11,6 C 95 % 1010,3 hPa 0,0 l/m 0 min 0 min 0 W/m 35,4 km/h (5 Bft) 97,87 %
22.12.2020 08:26 13,5 C 12,8 C 11,6 C 95 % 1010,4 hPa 0,0 l/m 0 min 0 min 0 W/m 45,1 km/h (6 Bft) 97,87 %
22.12.2020 08:28 13,5 C 12,8 C 11,6 C 95 % 1010,3 hPa 0,0 l/m 0 min 0 min 0 W/m 38,6 km/h (5 Bft) 97,87 %
22.12.2020 08:30 13,5 C 12,8 C 11,6 C 94 % 1010,4 hPa 0,0 l/m 0 min 0 min 0 W/m 38,6 km/h (5 Bft) 97,83 %
22.12.2020 08:32 13,5 C 12,8 C 11,6 C 94 % 1010,5 hPa 0,0 l/m 0 min 0 min 0 W/m 25,7 km/h (4 Bft) 97,92 %
22.12.2020 08:34 13,5 C 12,8 C 11,6 C 94 % 1010,6 hPa 0,0 l/m 0 min 0 min 0 W/m 41,8 km/h (6 Bft) 95,74 %
22.12.2020 08:36 13,5 C 12,8 C 11,1 C 94 % 1010,4 hPa 0,0 l/m 0 min 0 min 0 W/m 38,6 km/h (5 Bft) 97,87 %
22.12.2020 08:38 13,5 C 12,8 C 11,1 C 94 % 1010,5 hPa 0,0 l/m 0 min 0 min 0 W/m 32,2 km/h (5 Bft) 97,87 %
22.12.2020 08:40 13,5 C 12,8 C 11,1 C 94 % 1010,4 hPa 0,0 l/m 0 min 0 min 0 W/m 32,2 km/h (5 Bft) 97,83 %
22.12.2020 08:42 13,5 C 12,8 C 11,6 C 94 % 1010,4 hPa 0,0 l/m 0 min 0 min 0 W/m 29,0 km/h (5 Bft) 97,87 %
22.12.2020 08:44 13,5 C 12,8 C 11,6 C 94 % 1010,7 hPa 0,0 l/m 0 min 0 min 0 W/m 38,6 km/h (5 Bft) 97,87 %
22.12.2020 08:46 13,5 C 12,8 C 11,6 C 94 % 1010,6 hPa 0,0 l/m 0 min 0 min 0 W/m 54,7 km/h (7 Bft) 97,87 %
22.12.2020 08:48 13,5 C 12,8 C 11,6 C 94 % 1010,6 hPa 0,0 l/m 0 min 0 min 0 W/m 25,7 km/h (4 Bft) 97,87 %
22.12.2020 08:50 13,5 C 12,8 C 11,6 C 94 % 1010,8 hPa 0,0 l/m 0 min 0 min 2 W/m 25,7 km/h (4 Bft) 95,74 %
22.12.2020 08:52 13,5 C 12,8 C 11,1 C 94 % 1010,7 hPa 0,0 l/m 0 min 0 min 5 W/m 25,7 km/h (4 Bft) 95,65 %
22.12.2020 08:54 13,5 C 12,8 C 11,1 C 93 % 1010,9 hPa 0,0 l/m 0 min 0 min 5 W/m 45,1 km/h (6 Bft) 97,87 %
22.12.2020 08:56 13,5 C 13,3 C 11,6 C 93 % 1010,8 hPa 0,0 l/m 0 min 0 min 6 W/m 38,6 km/h (5 Bft) 97,87 %
22.12.2020 08:58 13,5 C 13,3 C 11,6 C 93 % 1011,0 hPa 0,0 l/m 0 min 0 min 7 W/m 35,4 km/h (5 Bft) 95,74 %
22.12.2020 09:00 13,6 C 13,3 C 11,6 C 93 % 1011,0 hPa 0,0 l/m 0 min 0 min 7 W/m 41,8 km/h (6 Bft) 97,87 %
22.12.2020 09:02 13,6 C 13,3 C 11,6 C 93 % 1010,9 hPa 0,0 l/m 0 min 0 min 8 W/m 22,5 km/h (4 Bft) 97,92 %
22.12.2020 09:04 13,6 C 13,3 C 11,6 C 93 % 1010,9 hPa 0,0 l/m 0 min 0 min 9 W/m 38,6 km/h (5 Bft) 95,65 %
22.12.2020 09:06 13,6 C 13,3 C 11,6 C 93 % 1011,0 hPa 0,0 l/m 0 min 0 min 9 W/m 32,2 km/h (5 Bft) 97,87 %
22.12.2020 09:08 13,6 C 12,8 C 11,6 C 93 % 1011,0 hPa 0,0 l/m 0 min 0 min 11 W/m 29,0 km/h (5 Bft) 100,00 %
22.12.2020 09:10 13,6 C 12,8 C 11,6 C 93 % 1011,0 hPa 0,0 l/m 0 min 0 min 11 W/m 25,7 km/h (4 Bft) 100,00 %
22.12.2020 09:12 13,6 C 12,8 C 11,6 C 93 % 1011,0 hPa 0,0 l/m 0 min 0 min 11 W/m 22,5 km/h (4 Bft) 97,87 %
22.12.2020 09:14 13,6 C 12,8 C 11,6 C 93 % 1010,9 hPa 0,0 l/m 0 min 0 min 12 W/m 35,4 km/h (5 Bft) 97,83 %
22.12.2020 09:16 13,6 C 12,8 C 11,6 C 93 % 1011,1 hPa 0,0 l/m 0 min 0 min 11 W/m 19,3 km/h (3 Bft) 97,87 %
22.12.2020 09:18 13,6 C 12,8 C 11,6 C 93 % 1011,1 hPa 0,0 l/m 0 min 0 min 13 W/m 29,0 km/h (5 Bft) 100,00 %
22.12.2020 09:20 13,6 C 12,8 C 11,6 C 93 % 1011,1 hPa 0,0 l/m 0 min 0 min 12 W/m 38,6 km/h (5 Bft) 100,00 %
22.12.2020 09:22 13,6 C 12,8 C 11,6 C 93 % 1011,2 hPa 0,0 l/m 0 min 0 min 12 W/m 45,1 km/h (6 Bft) 97,87 %
22.12.2020 09:24 13,6 C 12,8 C 11,6 C 93 % 1011,2 hPa 0,0 l/m 0 min 0 min 12 W/m 29,0 km/h (5 Bft) 97,87 %
22.12.2020 09:26 13,6 C 12,8 C 11,6 C 93 % 1011,2 hPa 0,0 l/m 0 min 0 min 12 W/m 29,0 km/h (5 Bft) 97,83 %
22.12.2020 09:28 13,6 C 13,3 C 11,6 C 93 % 1011,3 hPa 0,0 l/m 0 min 0 min 16 W/m 35,4 km/h (5 Bft) 95,74 %
22.12.2020 09:30 13,6 C 13,3 C 11,6 C 93 % 1011,3 hPa 0,0 l/m 0 min 0 min 17 W/m 32,2 km/h (5 Bft) 97,87 %
22.12.2020 09:32 13,6 C 13,3 C 11,6 C 93 % 1011,4 hPa 0,0 l/m 0 min 0 min 21 W/m 29,0 km/h (5 Bft) 97,87 %
22.12.2020 09:34 13,6 C 13,3 C 11,6 C 93 % 1011,4 hPa 0,0 l/m 0 min 0 min 21 W/m 29,0 km/h (5 Bft) 97,87 %
22.12.2020 09:36 13,6 C 13,3 C 11,6 C 92 % 1011,4 hPa 0,0 l/m 0 min 0 min 20 W/m 19,3 km/h (3 Bft) 97,87 %
22.12.2020 09:38 13,6 C 13,3 C 11,6 C 93 % 1011,4 hPa 0,0 l/m 0 min 0 min 21 W/m 6,4 km/h (2 Bft) 97,83 %
22.12.2020 09:40 13,6 C 12,8 C 11,6 C 93 % 1011,5 hPa 0,0 l/m 0 min 0 min 19 W/m 35,4 km/h (5 Bft) 97,87 %
22.12.2020 09:42 13,6 C 13,3 C 11,6 C 92 % 1011,5 hPa 0,0 l/m 0 min 0 min 17 W/m 25,7 km/h (4 Bft) 97,87 %
22.12.2020 09:44 13,6 C 13,3 C 11,6 C 92 % 1011,5 hPa 0,0 l/m 0 min 0 min 19 W/m 35,4 km/h (5 Bft) 97,87 %
22.12.2020 09:47 13,6 C 13,3 C 11,6 C 92 % 1011,7 hPa 0,0 l/m 0 min 0 min 20 W/m 19,3 km/h (3 Bft) 95,71 %
22.12.2020 09:48 13,6 C 13,3 C 11,6 C 92 % 1011,7 hPa 0,0 l/m 0 min 0 min 19 W/m 16,1 km/h (3 Bft) 100,00 %
22.12.2020 09:50 13,6 C 13,3 C 11,6 C 92 % 1011,7 hPa 0,0 l/m 0 min 0 min 20 W/m 25,7 km/h (4 Bft) 97,87 %
22.12.2020 09:52 13,7 C 13,3 C 11,6 C 92 % 1011,8 hPa 0,0 l/m 0 min 0 min 18 W/m 57,9 km/h (7 Bft) 95,65 %
22.12.2020 09:54 13,7 C 13,3 C 11,6 C 92 % 1011,7 hPa 0,0 l/m 0 min 0 min 18 W/m 32,2 km/h (5 Bft) 97,87 %
22.12.2020 09:56 13,7 C 13,3 C 11,6 C 92 % 1011,8 hPa 0,0 l/m 0 min 0 min 20 W/m 29,0 km/h (5 Bft) 97,87 %
22.12.2020 09:58 13,8 C 13,3 C 11,6 C 92 % 1011,8 hPa 0,0 l/m 0 min 0 min 23 W/m 25,7 km/h (4 Bft) 97,87 %
22.12.2020 10:00 13,8 C 13,3 C 11,6 C 92 % 1011,8 hPa 0,0 l/m 0 min 0 min 26 W/m 32,2 km/h (5 Bft) 97,87 %
22.12.2020 10:02 13,8 C 13,3 C 11,6 C 92 % 1011,7 hPa 0,0 l/m 0 min 0 min 27 W/m 45,1 km/h (6 Bft) 97,83 %
22.12.2020 10:04 13,8 C 13,3 C 11,6 C 91 % 1011,9 hPa 0,0 l/m 0 min 0 min 25 W/m 29,0 km/h (5 Bft) 97,87 %
22.12.2020 10:06 13,8 C 13,3 C 11,6 C 91 % 1011,9 hPa 0,0 l/m 0 min 0 min 36 W/m 16,1 km/h (3 Bft) 97,87 %
22.12.2020 10:08 13,8 C 13,3 C 11,6 C 91 % 1011,9 hPa 0,0 l/m 0 min 0 min 40 W/m 22,5 km/h (4 Bft) 97,22 %
22.12.2020 10:10 13,8 C 13,3 C 11,6 C 91 % 1012,0 hPa 0,0 l/m 0 min 0 min 30 W/m 19,3 km/h (3 Bft) 97,87 %
22.12.2020 10:12 13,8 C 12,8 C 11,1 C 91 % 1012,1 hPa 0,0 l/m 0 min 0 min 19 W/m 19,3 km/h (3 Bft) 100,00 %
22.12.2020 10:14 13,8 C 12,2 C 11,1 C 92 % 1012,2 hPa 0,0 l/m 0 min 2 min 22 W/m 38,6 km/h (5 Bft) 100,00 %
22.12.2020 10:16 13,8 C 11,7 C 10,5 C 92 % 1012,2 hPa 0,0 l/m 0 min 2 min 37 W/m 35,4 km/h (5 Bft) 100,00 %
22.12.2020 10:18 13,8 C 11,7 C 10,5 C 92 % 1012,2 hPa 0,0 l/m 0 min 2 min 47 W/m 16,1 km/h (3 Bft) 97,87 %
22.12.2020 10:20 13,8 C 11,7 C 10,5 C 93 % 1012,3 hPa 0,0 l/m 0 min 2 min 46 W/m 16,1 km/h (3 Bft) 100,00 %
22.12.2020 10:22 13,8 C 11,7 C 10,5 C 93 % 1012,2 hPa 0,0 l/m 0 min 2 min 51 W/m 16,1 km/h (3 Bft) 100,00 %
22.12.2020 10:24 13,8 C 11,7 C 10,5 C 93 % 1012,2 hPa 0,0 l/m 0 min 2 min 83 W/m 19,3 km/h (3 Bft) 100,00 %
22.12.2020 10:26 13,7 C 11,7 C 10,5 C 93 % 1012,3 hPa 0,0 l/m 0 min 2 min 64 W/m 16,1 km/h (3 Bft) 100,00 %
22.12.2020 10:28 13,7 C 12,2 C 10,5 C 93 % 1012,4 hPa 0,0 l/m 0 min 2 min 69 W/m 19,3 km/h (3 Bft) 100,00 %
22.12.2020 10:30 13,6 C 12,2 C 10,5 C 94 % 1012,3 hPa 0,0 l/m 0 min 0 min 55 W/m 12,9 km/h (3 Bft) 100,00 %
22.12.2020 10:32 13,6 C 12,2 C 10,5 C 94 % 1012,4 hPa 0,0 l/m 0 min 0 min 44 W/m 16,1 km/h (3 Bft) 100,00 %
22.12.2020 10:34 13,6 C 12,2 C 10,5 C 94 % 1012,4 hPa 0,0 l/m 0 min 0 min 64 W/m 25,7 km/h (4 Bft) 100,00 %
22.12.2020 10:36 13,6 C 12,2 C 10,5 C 94 % 1012,5 hPa 0,0 l/m 0 min 0 min 89 W/m 29,0 km/h (5 Bft) 100,00 %
22.12.2020 10:38 13,6 C 12,2 C 11,1 C 94 % 1012,5 hPa 0,0 l/m 2 min 0 min 112 W/m 29,0 km/h (5 Bft) 97,83 %
22.12.2020 10:40 13,6 C 12,8 C 11,1 C 94 % 1012,5 hPa 0,0 l/m 0 min 0 min 107 W/m 19,3 km/h (3 Bft) 97,87 %
22.12.2020 10:42 13,6 C 12,8 C 11,1 C 95 % 1012,6 hPa 0,0 l/m 0 min 0 min 71 W/m 32,2 km/h (5 Bft) 100,00 %
22.12.2020 10:44 13,6 C 12,8 C 11,1 C 95 % 1012,6 hPa 0,0 l/m 0 min 0 min 59 W/m 35,4 km/h (5 Bft) 100,00 %
22.12.2020 10:46 13,6 C 12,8 C 11,1 C 95 % 1012,6 hPa 0,0 l/m 0 min 0 min 45 W/m 19,3 km/h (3 Bft) 100,00 %
22.12.2020 10:48 13,6 C 12,8 C 11,1 C 95 % 1012,6 hPa 0,0 l/m 0 min 0 min 36 W/m 16,1 km/h (3 Bft) 100,00 %
22.12.2020 10:50 13,6 C 12,8 C 11,1 C 95 % 1012,6 hPa 0,0 l/m 0 min 0 min 81 W/m 32,2 km/h (5 Bft) 100,00 %
22.12.2020 10:52 13,6 C 12,8 C 11,1 C 94 % 1012,6 hPa 0,0 l/m 0 min 0 min 99 W/m 19,3 km/h (3 Bft) 100,00 %
22.12.2020 10:54 13,6 C 12,8 C 11,6 C 94 % 1012,5 hPa 0,0 l/m 0 min 0 min 92 W/m 29,0 km/h (5 Bft) 100,00 %
22.12.2020 10:56 13,6 C 13,3 C 11,6 C 94 % 1012,6 hPa 0,0 l/m 0 min 0 min 78 W/m 12,9 km/h (3 Bft) 100,00 %
22.12.2020 10:58 13,6 C 13,3 C 11,6 C 94 % 1012,6 hPa 0,0 l/m 0 min 0 min 73 W/m 22,5 km/h (4 Bft) 100,00 %
22.12.2020 11:00 13,6 C 13,3 C 11,6 C 94 % 1012,6 hPa 0,0 l/m 0 min 0 min 82 W/m 12,9 km/h (3 Bft) 100,00 %
22.12.2020 11:02 13,6 C 13,3 C 11,6 C 94 % 1012,7 hPa 0,0 l/m 0 min 0 min 95 W/m 25,7 km/h (4 Bft) 95,74 %
22.12.2020 11:04 13,7 C 13,3 C 11,6 C 93 % 1012,8 hPa 0,0 l/m 0 min 0 min 88 W/m 12,9 km/h (3 Bft) 97,83 %
22.12.2020 11:06 13,7 C 13,9 C 11,6 C 93 % 1012,7 hPa 0,0 l/m 0 min 0 min 119 W/m 9,7 km/h (2 Bft) 97,87 %
22.12.2020 11:08 13,7 C 13,9 C 12,2 C 93 % 1012,7 hPa 0,0 l/m 0 min 0 min 104 W/m 29,0 km/h (5 Bft) 97,87 %
22.12.2020 11:10 13,8 C 13,9 C 12,2 C 93 % 1012,7 hPa 0,0 l/m 0 min 0 min 125 W/m 22,5 km/h (4 Bft) 93,62 %
22.12.2020 11:12 13,8 C 13,9 C 12,2 C 93 % 1012,7 hPa 0,0 l/m 0 min 0 min 128 W/m 12,9 km/h (3 Bft) 95,74 %
22.12.2020 11:14 13,9 C 13,9 C 12,2 C 93 % 1012,8 hPa 0,0 l/m 2 min 0 min 141 W/m 29,0 km/h (5 Bft) 95,65 %
22.12.2020 11:16 13,9 C 13,9 C 12,2 C 92 % 1012,7 hPa 0,0 l/m 0 min 0 min 79 W/m 12,9 km/h (3 Bft) 95,74 %
22.12.2020 11:18 13,9 C 13,3 C 12,2 C 92 % 1012,8 hPa 0,0 l/m 0 min 0 min 38 W/m 19,3 km/h (3 Bft) 95,74 %
22.12.2020 11:20 13,9 C 13,3 C 11,6 C 92 % 1012,8 hPa 0,0 l/m 0 min 0 min 32 W/m 16,1 km/h (3 Bft) 95,74 %
22.12.2020 11:22 13,9 C 13,3 C 11,6 C 92 % 1012,8 hPa 0,0 l/m 0 min 0 min 31 W/m 25,7 km/h (4 Bft) 93,62 %
22.12.2020 11:24 13,9 C 13,3 C 11,6 C 91 % 1012,9 hPa 0,0 l/m 0 min 0 min 27 W/m 9,7 km/h (2 Bft) 95,74 %
22.12.2020 11:26 13,9 C 13,3 C 11,6 C 91 % 1012,9 hPa 0,0 l/m 0 min 0 min 30 W/m 19,3 km/h (3 Bft) 95,65 %
22.12.2020 11:28 13,9 C 13,3 C 11,6 C 91 % 1012,9 hPa 0,0 l/m 0 min 0 min 69 W/m 12,9 km/h (3 Bft) 95,74 %
22.12.2020 11:30 13,9 C 13,3 C 11,6 C 91 % 1013,0 hPa 0,0 l/m 0 min 0 min 81 W/m 0,0 km/h (0 Bft) 97,71 %
22.12.2020 11:32 13,9 C 13,3 C 11,6 C 91 % 1013,0 hPa 0,0 l/m 0 min 0 min 76 W/m 12,9 km/h (3 Bft) 94,92 %
22.12.2020 11:34 13,9 C 13,3 C 12,2 C 91 % 1013,0 hPa 0,0 l/m 0 min 0 min 85 W/m 12,9 km/h (3 Bft) 95,65 %
22.12.2020 11:36 13,9 C 13,9 C 12,2 C 91 % 1013,0 hPa 0,0 l/m 0 min 0 min 96 W/m 19,3 km/h (3 Bft) 93,62 %
22.12.2020 11:38 13,9 C 13,9 C 12,2 C 91 % 1013,0 hPa 0,0 l/m 0 min 0 min 90 W/m 22,5 km/h (4 Bft) 93,62 %
22.12.2020 11:40 13,9 C 13,3 C 12,2 C 91 % 1013,1 hPa 0,0 l/m 0 min 0 min 87 W/m 25,7 km/h (4 Bft) 95,83 %
22.12.2020 11:42 13,9 C 13,3 C 11,6 C 92 % 1013,1 hPa 0,0 l/m 0 min 0 min 97 W/m 29,0 km/h (5 Bft) 95,74 %
22.12.2020 11:44 13,9 C 13,9 C 12,2 C 92 % 1013,1 hPa 0,0 l/m 0 min 0 min 131 W/m 16,1 km/h (3 Bft) 95,74 %
22.12.2020 11:46 13,9 C 13,9 C 12,2 C 92 % 1013,1 hPa 0,0 l/m 0 min 0 min 129 W/m 22,5 km/h (4 Bft) 97,83 %
22.12.2020 11:48 14,0 C 13,3 C 12,2 C 92 % 1013,1 hPa 0,0 l/m 0 min 0 min 100 W/m 22,5 km/h (4 Bft) 95,74 %
22.12.2020 11:50 13,9 C 13,3 C 11,6 C 92 % 1013,2 hPa 0,0 l/m 0 min 0 min 105 W/m 6,4 km/h (2 Bft) 97,87 %
22.12.2020 11:52 13,9 C 13,3 C 11,6 C 92 % 1013,2 hPa 0,0 l/m 0 min 0 min 93 W/m 22,5 km/h (4 Bft) 95,74 %
22.12.2020 11:54 13,9 C 13,3 C 11,6 C 92 % 1013,2 hPa 0,0 l/m 0 min 0 min 92 W/m 3,2 km/h (1 Bft) 97,87 %
22.12.2020 11:56 13,9 C 13,3 C 12,2 C 92 % 1013,3 hPa 0,0 l/m 0 min 0 min 101 W/m 19,3 km/h (3 Bft) 95,74 %
22.12.2020 11:58 13,9 C 13,3 C 11,6 C 92 % 1013,3 hPa 0,0 l/m 0 min 0 min 92 W/m 32,2 km/h (5 Bft) 97,83 %
22.12.2020 12:00 13,9 C 13,3 C 11,6 C 92 % 1013,2 hPa 0,0 l/m 0 min 0 min 98 W/m 45,1 km/h (6 Bft) 93,62 %
22.12.2020 12:02 13,8 C 13,3 C 11,6 C 92 % 1013,1 hPa 0,0 l/m 0 min 0 min 89 W/m 29,0 km/h (5 Bft) 97,87 %
22.12.2020 12:04 13,8 C 13,3 C 11,6 C 91 % 1013,3 hPa 0,0 l/m 0 min 0 min 85 W/m 32,2 km/h (5 Bft) 97,87 %
22.12.2020 12:08 13,8 C 13,9 C 12,2 C 91 % 1013,2 hPa 0,0 l/m 0 min 0 min 103 W/m 16,1 km/h (3 Bft) 96,81 %
22.12.2020 12:10 13,8 C 13,9 C 11,6 C 91 % 1013,2 hPa 0,0 l/m 0 min 0 min 95 W/m 29,0 km/h (5 Bft) 97,87 %
22.12.2020 12:12 13,8 C 13,9 C 11,6 C 91 % 1013,2 hPa 0,0 l/m 0 min 0 min 96 W/m 32,2 km/h (5 Bft) 93,62 %
22.12.2020 12:14 13,9 C 13,9 C 11,6 C 91 % 1013,3 hPa 0,0 l/m 0 min 0 min 105 W/m 32,2 km/h (5 Bft) 95,74 %
22.12.2020 12:16 13,9 C 13,9 C 12,2 C 91 % 1013,3 hPa 0,0 l/m 0 min 0 min 108 W/m 35,4 km/h (5 Bft) 95,74 %
22.12.2020 12:18 13,9 C 14,4 C 12,2 C 90 % 1013,3 hPa 0,0 l/m 0 min 0 min 109 W/m 29,0 km/h (5 Bft) 95,74 %
22.12.2020 12:20 13,9 C 15,0 C 12,2 C 90 % 1013,4 hPa 0,0 l/m 0 min 0 min 132 W/m 25,7 km/h (4 Bft) 93,48 %
22.12.2020 12:22 14,0 C 15,6 C 12,2 C 90 % 1013,3 hPa 0,0 l/m 2 min 0 min 271 W/m 29,0 km/h (5 Bft) 97,92 %
22.12.2020 12:24 14,0 C 15,6 C 12,7 C 90 % 1013,3 hPa 0,0 l/m 2 min 0 min 255 W/m 22,5 km/h (4 Bft) 97,87 %
22.12.2020 12:26 14,1 C 15,6 C 12,7 C 90 % 1013,3 hPa 0,0 l/m 2 min 0 min 161 W/m 29,0 km/h (5 Bft) 93,62 %
22.12.2020 12:28 14,1 C 16,1 C 13,3 C 90 % 1013,4 hPa 0,0 l/m 2 min 0 min 242 W/m 38,6 km/h (5 Bft) 95,74 %
22.12.2020 12:30 14,2 C 17,2 C 13,3 C 89 % 1013,3 hPa 0,0 l/m 2 min 0 min 364 W/m 25,7 km/h (4 Bft) 95,74 %
22.12.2020 12:32 14,2 C 16,7 C 13,8 C 89 % 1013,3 hPa 0,0 l/m 2 min 0 min 346 W/m 22,5 km/h (4 Bft) 94,44 %
22.12.2020 12:34 14,3 C 16,1 C 13,8 C 89 % 1013,3 hPa 0,0 l/m 2 min 0 min 346 W/m 32,2 km/h (5 Bft) 96,55 %
22.12.2020 12:36 14,4 C 16,1 C 13,3 C 89 % 1013,3 hPa 0,0 l/m 2 min 0 min 360 W/m 35,4 km/h (5 Bft) 93,62 %
22.12.2020 12:38 14,5 C 16,1 C 13,3 C 88 % 1013,3 hPa 0,0 l/m 2 min 0 min 371 W/m 45,1 km/h (6 Bft) 93,62 %
22.12.2020 12:40 14,5 C 16,1 C 13,3 C 88 % 1013,4 hPa 0,0 l/m 2 min 0 min 360 W/m 16,1 km/h (3 Bft) 100,00 %
22.12.2020 12:42 14,6 C 16,1 C 13,3 C 88 % 1013,4 hPa 0,0 l/m 2 min 0 min 159 W/m 41,8 km/h (6 Bft) 95,74 %
22.12.2020 12:44 14,6 C 15,0 C 12,7 C 87 % 1013,4 hPa 0,0 l/m 0 min 0 min 141 W/m 41,8 km/h (6 Bft) 95,74 %
22.12.2020 12:46 14,6 C 14,4 C 12,7 C 87 % 1013,4 hPa 0,0 l/m 2 min 0 min 155 W/m 29,0 km/h (5 Bft) 97,83 %
22.12.2020 12:48 14,6 C 15,0 C 12,7 C 87 % 1013,5 hPa 0,0 l/m 2 min 0 min 177 W/m 41,8 km/h (6 Bft) 97,87 %
22.12.2020 12:50 14,6 C 15,0 C 12,7 C 86 % 1013,5 hPa 0,0 l/m 2 min 0 min 244 W/m 35,4 km/h (5 Bft) 97,87 %
22.12.2020 12:52 14,6 C 14,4 C 12,2 C 86 % 1013,5 hPa 0,0 l/m 2 min 0 min 163 W/m 41,8 km/h (6 Bft) 95,74 %
22.12.2020 12:54 14,5 C 14,4 C 12,2 C 86 % 1013,4 hPa 0,0 l/m 0 min 0 min 89 W/m 38,6 km/h (5 Bft) 95,74 %
22.12.2020 12:56 14,5 C 14,4 C 12,2 C 86 % 1013,4 hPa 0,0 l/m 0 min 0 min 93 W/m 29,0 km/h (5 Bft) 97,87 %
22.12.2020 12:58 14,5 C 14,4 C 12,2 C 86 % 1013,4 hPa 0,0 l/m 0 min 0 min 133 W/m 29,0 km/h (5 Bft) 97,83 %
22.12.2020 13:00 14,5 C 14,4 C 12,2 C 86 % 1013,4 hPa 0,0 l/m 0 min 0 min 116 W/m 16,1 km/h (3 Bft) 95,74 %
22.12.2020 13:02 14,4 C 13,9 C 12,2 C 86 % 1013,6 hPa 0,0 l/m 0 min 0 min 102 W/m 32,2 km/h (5 Bft) 98,15 %
22.12.2020 13:04 14,4 C 13,9 C 12,2 C 86 % 1013,5 hPa 0,0 l/m 0 min 0 min 136 W/m 25,7 km/h (4 Bft) 97,87 %
22.12.2020 13:06 14,4 C 13,9 C 12,2 C 86 % 1013,5 hPa 0,0 l/m 0 min 0 min 121 W/m 12,9 km/h (3 Bft) 97,92 %
22.12.2020 13:08 14,4 C 14,4 C 12,2 C 86 % 1013,5 hPa 0,0 l/m 2 min 0 min 169 W/m 25,7 km/h (4 Bft) 100,00 %
22.12.2020 13:10 14,4 C 14,4 C 12,2 C 86 % 1013,5 hPa 0,0 l/m 0 min 0 min 124 W/m 25,7 km/h (4 Bft) 100,00 %
22.12.2020 13:12 14,4 C 14,4 C 12,2 C 86 % 1013,5 hPa 0,0 l/m 0 min 0 min 106 W/m 12,9 km/h (3 Bft) 100,00 %
22.12.2020 13:14 14,3 C 13,9 C 12,2 C 86 % 1013,5 hPa 0,0 l/m 0 min 0 min 93 W/m 25,7 km/h (4 Bft) 100,00 %
22.12.2020 13:16 14,3 C 14,4 C 12,2 C 86 % 1013,6 hPa 0,0 l/m 0 min 0 min 106 W/m 35,4 km/h (5 Bft) 100,00 %
22.12.2020 13:18 14,3 C 14,4 C 12,2 C 86 % 1013,6 hPa 0,0 l/m 0 min 0 min 82 W/m 16,1 km/h (3 Bft) 100,00 %
22.12.2020 13:20 14,3 C 14,4 C 11,6 C 86 % 1013,5 hPa 0,0 l/m 0 min 0 min 97 W/m 22,5 km/h (4 Bft) 97,83 %
22.12.2020 13:22 14,2 C 13,9 C 11,6 C 85 % 1013,4 hPa 0,0 l/m 0 min 0 min 96 W/m 25,7 km/h (4 Bft) 97,87 %
22.12.2020 13:24 14,2 C 13,9 C 11,6 C 85 % 1013,5 hPa 0,0 l/m 0 min 0 min 87 W/m 22,5 km/h (4 Bft) 100,00 %
22.12.2020 13:26 14,2 C 13,9 C 11,6 C 85 % 1013,5 hPa 0,0 l/m 0 min 0 min 94 W/m 22,5 km/h (4 Bft) 100,00 %
22.12.2020 13:28 14,2 C 13,9 C 11,6 C 85 % 1013,5 hPa 0,0 l/m 0 min 0 min 95 W/m 29,0 km/h (5 Bft) 100,00 %
22.12.2020 13:30 14,2 C 13,9 C 11,6 C 85 % 1013,6 hPa 0,0 l/m 0 min 0 min 93 W/m 29,0 km/h (5 Bft) 100,00 %
22.12.2020 13:32 14,2 C 13,9 C 11,6 C 85 % 1013,6 hPa 0,0 l/m 0 min 0 min 92 W/m 25,7 km/h (4 Bft) 93,48 %
22.12.2020 13:34 14,2 C 13,9 C 11,6 C 85 % 1013,6 hPa 0,0 l/m 0 min 0 min 80 W/m 22,5 km/h (4 Bft) 97,87 %
22.12.2020 13:36 14,2 C 13,9 C 11,6 C 85 % 1013,7 hPa 0,0 l/m 0 min 0 min 76 W/m 25,7 km/h (4 Bft) 97,87 %
22.12.2020 13:38 14,2 C 13,9 C 11,6 C 85 % 1013,7 hPa 0,0 l/m 0 min 0 min 84 W/m 22,5 km/h (4 Bft) 97,87 %
22.12.2020 13:40 14,2 C 13,9 C 11,6 C 85 % 1013,8 hPa 0,0 l/m 0 min 0 min 89 W/m 32,2 km/h (5 Bft) 97,87 %
22.12.2020 13:42 14,2 C 13,3 C 11,6 C 85 % 1013,7 hPa 0,0 l/m 0 min 0 min 79 W/m 22,5 km/h (4 Bft) 95,74 %
22.12.2020 13:44 14,2 C 13,3 C 11,1 C 85 % 1013,8 hPa 0,0 l/m 0 min 0 min 56 W/m 25,7 km/h (4 Bft) 97,83 %
22.12.2020 13:46 14,2 C 13,3 C 11,1 C 85 % 1013,7 hPa 0,0 l/m 0 min 0 min 61 W/m 32,2 km/h (5 Bft) 97,87 %
22.12.2020 13:48 14,1 C 13,3 C 11,1 C 85 % 1013,7 hPa 0,0 l/m 0 min 0 min 67 W/m 25,7 km/h (4 Bft) 97,87 %
22.12.2020 13:50 14,1 C 13,3 C 11,1 C 85 % 1013,7 hPa 0,0 l/m 0 min 0 min 57 W/m 25,7 km/h (4 Bft) 95,74 %
22.12.2020 13:52 14,1 C 13,3 C 11,1 C 85 % 1013,7 hPa 0,0 l/m 0 min 0 min 60 W/m 6,4 km/h (2 Bft) 97,87 %
22.12.2020 13:54 14,1 C 13,3 C 11,1 C 86 % 1013,8 hPa 0,0 l/m 0 min 0 min 64 W/m 19,3 km/h (3 Bft) 97,87 %
22.12.2020 13:56 14,0 C 13,3 C 11,1 C 86 % 1013,8 hPa 0,0 l/m 0 min 0 min 63 W/m 25,7 km/h (4 Bft) 97,83 %
22.12.2020 13:58 14,0 C 13,3 C 11,1 C 86 % 1013,8 hPa 0,0 l/m 0 min 0 min 68 W/m 22,5 km/h (4 Bft) 97,87 %
22.12.2020 14:00 14,0 C 13,3 C 11,1 C 86 % 1013,8 hPa 0,0 l/m 0 min 0 min 76 W/m 16,1 km/h (3 Bft) 97,87 %
22.12.2020 14:02 14,0 C 13,3 C 11,1 C 86 % 1013,9 hPa 0,0 l/m 0 min 0 min 82 W/m 16,1 km/h (3 Bft) 97,87 %
22.12.2020 14:04 14,0 C 13,3 C 11,1 C 86 % 1013,9 hPa 0,0 l/m 0 min 0 min 82 W/m 25,7 km/h (4 Bft) 97,87 %
22.12.2020 14:06 13,9 C 13,3 C 11,1 C 86 % 1013,9 hPa 0,0 l/m 0 min 0 min 95 W/m 12,9 km/h (3 Bft) 93,62 %
22.12.2020 14:08 13,9 C 13,3 C 11,6 C 86 % 1013,9 hPa 0,0 l/m 0 min 0 min 118 W/m 41,8 km/h (6 Bft) 97,83 %
22.12.2020 14:10 13,9 C 13,9 C 11,6 C 86 % 1013,8 hPa 0,0 l/m 2 min 0 min 143 W/m 29,0 km/h (5 Bft) 97,87 %
22.12.2020 14:12 13,9 C 13,3 C 11,6 C 86 % 1013,9 hPa 0,0 l/m 2 min 0 min 122 W/m 32,2 km/h (5 Bft) 97,87 %
22.12.2020 14:14 13,9 C 13,9 C 11,6 C 86 % 1013,9 hPa 0,0 l/m 0 min 0 min 98 W/m 12,9 km/h (3 Bft) 97,87 %
22.12.2020 14:16 13,9 C 13,9 C 11,6 C 86 % 1013,9 hPa 0,0 l/m 0 min 0 min 105 W/m 22,5 km/h (4 Bft) 100,00 %
22.12.2020 14:18 13,9 C 13,9 C 11,6 C 86 % 1014,0 hPa 0,0 l/m 2 min 0 min 138 W/m 19,3 km/h (3 Bft) 100,00 %
22.12.2020 14:20 13,9 C 13,9 C 11,6 C 86 % 1013,8 hPa 0,0 l/m 0 min 0 min 109 W/m 29,0 km/h (5 Bft) 100,00 %
22.12.2020 14:22 13,9 C 13,9 C 11,6 C 86 % 1013,8 hPa 0,0 l/m 0 min 0 min 83 W/m 19,3 km/h (3 Bft) 100,00 %
22.12.2020 14:24 13,9 C 13,9 C 11,6 C 86 % 1013,9 hPa 0,0 l/m 0 min 0 min 90 W/m 29,0 km/h (5 Bft) 100,00 %
22.12.2020 14:26 13,9 C 13,9 C 11,6 C 86 % 1013,8 hPa 0,0 l/m 2 min 0 min 125 W/m 32,2 km/h (5 Bft) 100,00 %
22.12.2020 14:28 13,9 C 13,9 C 11,6 C 86 % 1013,8 hPa 0,0 l/m 2 min 0 min 146 W/m 22,5 km/h (4 Bft) 100,00 %
22.12.2020 14:30 13,9 C 13,9 C 11,6 C 87 % 1013,7 hPa 0,0 l/m 2 min 0 min 138 W/m 16,1 km/h (3 Bft) 100,00 %
22.12.2020 14:32 13,9 C 13,9 C 11,6 C 87 % 1013,9 hPa 0,0 l/m 2 min 0 min 123 W/m 32,2 km/h (5 Bft) 100,00 %
22.12.2020 14:34 13,9 C 13,9 C 11,6 C 87 % 1013,9 hPa 0,0 l/m 2 min 0 min 131 W/m 22,5 km/h (4 Bft) 100,00 %
22.12.2020 14:36 13,9 C 13,9 C 11,6 C 87 % 1013,9 hPa 0,0 l/m 2 min 0 min 126 W/m 19,3 km/h (3 Bft) 100,00 %
22.12.2020 14:38 14,0 C 13,9 C 11,6 C 87 % 1013,9 hPa 0,0 l/m 2 min 0 min 117 W/m 32,2 km/h (5 Bft) 100,00 %
22.12.2020 14:40 13,9 C 14,4 C 11,6 C 87 % 1014,0 hPa 0,0 l/m 2 min 0 min 122 W/m 19,3 km/h (3 Bft) 100,00 %
22.12.2020 14:42 14,0 C 13,9 C 11,6 C 87 % 1014,0 hPa 0,0 l/m 2 min 0 min 109 W/m 19,3 km/h (3 Bft) 100,00 %
22.12.2020 14:44 14,0 C 14,4 C 11,6 C 87 % 1014,0 hPa 0,0 l/m 2 min 0 min 114 W/m 22,5 km/h (4 Bft) 100,00 %
22.12.2020 14:46 14,0 C 15,0 C 11,6 C 87 % 1014,0 hPa 0,0 l/m 2 min 0 min 201 W/m 6,4 km/h (2 Bft) 97,92 %
22.12.2020 14:48 14,0 C 14,4 C 11,6 C 87 % 1013,9 hPa 0,0 l/m 2 min 0 min 113 W/m 19,3 km/h (3 Bft) 100,00 %
22.12.2020 14:50 14,0 C 13,9 C 11,6 C 86 % 1014,0 hPa 0,0 l/m 0 min 0 min 75 W/m 16,1 km/h (3 Bft) 97,87 %
22.12.2020 14:52 14,0 C 13,9 C 11,6 C 86 % 1014,0 hPa 0,0 l/m 0 min 0 min 76 W/m 12,9 km/h (3 Bft) 100,00 %
22.12.2020 14:54 14,0 C 13,9 C 11,6 C 86 % 1014,1 hPa 0,0 l/m 0 min 0 min 85 W/m 19,3 km/h (3 Bft) 100,00 %
22.12.2020 14:56 14,0 C 13,3 C 11,1 C 86 % 1014,1 hPa 0,0 l/m 0 min 0 min 73 W/m 29,0 km/h (5 Bft) 100,00 %
22.12.2020 14:58 14,0 C 13,3 C 11,1 C 86 % 1014,1 hPa 0,0 l/m 0 min 0 min 43 W/m 25,7 km/h (4 Bft) 100,00 %
22.12.2020 15:00 14,0 C 13,3 C 11,1 C 86 % 1014,0 hPa 0,0 l/m 0 min 0 min 32 W/m 16,1 km/h (3 Bft) 100,00 %
22.12.2020 15:02 14,0 C 13,3 C 11,1 C 86 % 1014,0 hPa 0,0 l/m 0 min 0 min 30 W/m 22,5 km/h (4 Bft) 100,00 %
22.12.2020 15:04 14,0 C 13,3 C 11,1 C 86 % 1013,9 hPa 0,0 l/m 0 min 0 min 31 W/m 3,2 km/h (1 Bft) 97,83 %
22.12.2020 15:06 14,0 C 13,3 C 10,5 C 86 % 1014,0 hPa 0,0 l/m 0 min 0 min 33 W/m 16,1 km/h (3 Bft) 100,00 %
22.12.2020 15:08 13,9 C 13,3 C 10,5 C 86 % 1014,0 hPa 0,0 l/m 0 min 0 min 34 W/m 16,1 km/h (3 Bft) 100,00 %
22.12.2020 15:10 13,9 C 12,8 C 10,5 C 87 % 1014,0 hPa 0,0 l/m 0 min 0 min 32 W/m 16,1 km/h (3 Bft) 100,00 %
22.12.2020 15:12 13,9 C 12,8 C 10,5 C 87 % 1014,1 hPa 0,0 l/m 0 min 0 min 32 W/m 16,1 km/h (3 Bft) 100,00 %
22.12.2020 15:14 13,9 C 12,8 C 10,5 C 87 % 1014,1 hPa 0,0 l/m 0 min 0 min 32 W/m 22,5 km/h (4 Bft) 97,87 %
22.12.2020 15:16 13,8 C 12,8 C 10,5 C 87 % 1014,1 hPa 0,0 l/m 0 min 0 min 30 W/m 12,9 km/h (3 Bft) 100,00 %
22.12.2020 15:18 13,8 C 12,8 C 10,5 C 87 % 1014,2 hPa 0,0 l/m 0 min 0 min 30 W/m 3,2 km/h (1 Bft) 95,74 %
22.12.2020 15:20 13,8 C 12,8 C 10,5 C 87 % 1014,3 hPa 0,0 l/m 0 min 0 min 32 W/m 19,3 km/h (3 Bft) 100,00 %
22.12.2020 15:22 13,7 C 12,8 C 10,5 C 87 % 1014,3 hPa 0,0 l/m 0 min 0 min 32 W/m 3,2 km/h (1 Bft) 97,87 %
22.12.2020 15:24 13,7 C 12,8 C 10,5 C 87 % 1014,3 hPa 0,0 l/m 0 min 0 min 31 W/m 12,9 km/h (3 Bft) 95,74 %
22.12.2020 15:26 13,6 C 12,8 C 10,5 C 87 % 1014,4 hPa 0,0 l/m 0 min 0 min 26 W/m 19,3 km/h (3 Bft) 93,48 %
22.12.2020 15:28 13,6 C 12,8 C 10,5 C 88 % 1014,4 hPa 0,0 l/m 0 min 0 min 25 W/m 19,3 km/h (3 Bft) 95,74 %
22.12.2020 15:30 13,5 C 12,8 C 10,5 C 88 % 1014,4 hPa 0,0 l/m 0 min 0 min 25 W/m 3,2 km/h (1 Bft) 91,49 %
22.12.2020 15:32 13,5 C 12,8 C 10,5 C 88 % 1014,4 hPa 0,0 l/m 0 min 0 min 21 W/m 0,0 km/h (0 Bft) 95,92 %
22.12.2020 15:34 13,5 C 12,8 C 10,5 C 88 % 1014,4 hPa 0,0 l/m 0 min 0 min 17 W/m 0,0 km/h (0 Bft) 93,62 %
22.12.2020 15:36 13,5 C 12,8 C 10,5 C 88 % 1014,5 hPa 0,0 l/m 0 min 0 min 15 W/m 0,0 km/h (0 Bft) 95,74 %
22.12.2020 15:38 13,5 C 12,8 C 10,5 C 88 % 1014,5 hPa 0,0 l/m 0 min 0 min 12 W/m 0,0 km/h (0 Bft) 95,65 %
22.12.2020 15:40 13,4 C 12,8 C 10,5 C 88 % 1014,5 hPa 0,0 l/m 0 min 0 min 11 W/m 0,0 km/h (0 Bft) 95,74 %
22.12.2020 15:42 13,4 C 12,8 C 9,9 C 88 % 1014,5 hPa 0,0 l/m 0 min 0 min 11 W/m 0,0 km/h (0 Bft) 95,74 %
22.12.2020 15:44 13,4 C 12,8 C 9,9 C 88 % 1014,5 hPa 0,0 l/m 0 min 0 min 10 W/m 3,2 km/h (1 Bft) 93,62 %
22.12.2020 15:47 13,4 C 12,8 C 9,9 C 88 % 1014,5 hPa 0,0 l/m 0 min 0 min 11 W/m 19,3 km/h (3 Bft) 95,71 %
22.12.2020 15:48 13,4 C 12,8 C 9,9 C 88 % 1014,5 hPa 0,0 l/m 0 min 0 min 11 W/m 3,2 km/h (1 Bft) 95,83 %
22.12.2020 15:50 13,3 C 12,8 C 9,9 C 88 % 1014,5 hPa 0,0 l/m 0 min 0 min 11 W/m 12,9 km/h (3 Bft) 95,65 %
22.12.2020 15:52 13,3 C 12,8 C 9,9 C 88 % 1014,5 hPa 0,0 l/m 0 min 0 min 10 W/m 16,1 km/h (3 Bft) 93,62 %
22.12.2020 15:54 13,3 C 12,2 C 9,9 C 88 % 1014,5 hPa 0,0 l/m 0 min 0 min 9 W/m 0,0 km/h (0 Bft) 95,74 %
22.12.2020 15:56 13,3 C 12,2 C 9,9 C 88 % 1014,5 hPa 0,0 l/m 0 min 0 min 8 W/m 0,0 km/h (0 Bft) 93,62 %
22.12.2020 15:58 13,3 C 12,2 C 9,9 C 88 % 1014,5 hPa 0,0 l/m 0 min 0 min 7 W/m 3,2 km/h (1 Bft) 95,74 %
22.12.2020 16:00 13,3 C 12,2 C 9,9 C 88 % 1014,5 hPa 0,0 l/m 0 min 0 min 7 W/m 0,0 km/h (0 Bft) 95,74 %
22.12.2020 16:02 13,2 C 12,2 C 9,9 C 89 % 1014,5 hPa 0,0 l/m 0 min 0 min 6 W/m 0,0 km/h (0 Bft) 95,65 %
22.12.2020 16:04 13,2 C 12,2 C 9,9 C 89 % 1014,6 hPa 0,0 l/m 0 min 0 min 5 W/m 0,0 km/h (0 Bft) 95,74 %
22.12.2020 16:06 13,1 C 12,2 C 9,9 C 89 % 1014,6 hPa 0,0 l/m 0 min 0 min 4 W/m 0,0 km/h (0 Bft) 97,87 %
22.12.2020 16:10 13,1 C 12,2 C 9,9 C 89 % 1014,8 hPa 0,0 l/m 0 min 0 min 0 W/m 0,0 km/h (0 Bft) 100,00 %
22.12.2020 16:14 13,1 C 12,2 C 9,9 C 89 % 1014,8 hPa 0,0 l/m 0 min 0 min 0 W/m 3,2 km/h (1 Bft) 96,15 %
22.12.2020 16:16 13,1 C 12,2 C 9,9 C 89 % 1014,8 hPa 0,0 l/m 0 min 0 min 0 W/m 3,2 km/h (1 Bft) 95,65 %
22.12.2020 16:18 13,1 C 12,2 C 9,9 C 89 % 1014,8 hPa 0,0 l/m 0 min 0 min 0 W/m 0,0 km/h (0 Bft) 95,74 %
22.12.2020 16:20 13,1 C 12,2 C 9,9 C 89 % 1014,8 hPa 0,0 l/m 0 min 0 min 0 W/m 0,0 km/h (0 Bft) 95,74 %
22.12.2020 16:22 13,0 C 12,2 C 9,9 C 89 % 1014,7 hPa 0,0 l/m 0 min 0 min 0 W/m 0,0 km/h (0 Bft) 93,62 %
22.12.2020 16:24 13,0 C 12,2 C 9,9 C 89 % 1014,7 hPa 0,0 l/m 0 min 0 min 0 W/m 3,2 km/h (1 Bft) 95,74 %
22.12.2020 16:26 13,0 C 12,2 C 9,9 C 89 % 1014,7 hPa 0,0 l/m 0 min 0 min 0 W/m 0,0 km/h (0 Bft) 91,49 %
22.12.2020 16:28 13,0 C 12,2 C 9,9 C 90 % 1014,7 hPa 0,0 l/m 0 min 0 min 0 W/m 0,0 km/h (0 Bft) 95,65 %
22.12.2020 16:30 13,0 C 12,2 C 9,9 C 90 % 1014,7 hPa 0,0 l/m 0 min 0 min 0 W/m 0,0 km/h (0 Bft) 95,74 %
22.12.2020 16:32 13,0 C 12,2 C 9,9 C 90 % 1014,7 hPa 0,0 l/m 0 min 0 min 0 W/m 0,0 km/h (0 Bft) 91,49 %
22.12.2020 16:34 13,0 C 12,2 C 9,9 C 90 % 1014,7 hPa 0,0 l/m 0 min 0 min 0 W/m 0,0 km/h (0 Bft) 95,74 %
22.12.2020 16:36 13,0 C 12,2 C 9,9 C 90 % 1014,8 hPa 0,0 l/m 0 min 0 min 0 W/m 6,4 km/h (2 Bft) 97,87 %
22.12.2020 16:38 13,0 C 12,2 C 9,9 C 90 % 1014,8 hPa 0,0 l/m 0 min 0 min 0 W/m 0,0 km/h (0 Bft) 97,83 %
22.12.2020 16:40 13,0 C 12,2 C 9,9 C 90 % 1014,8 hPa 0,0 l/m 0 min 0 min 0 W/m 0,0 km/h (0 Bft) 97,87 %
22.12.2020 16:42 13,0 C 12,2 C 9,9 C 90 % 1014,7 hPa 0,0 l/m 0 min 0 min 0 W/m 0,0 km/h (0 Bft) 97,87 %
22.12.2020 16:44 12,9 C 12,2 C 9,9 C 90 % 1014,7 hPa 0,0 l/m 0 min 0 min 0 W/m 0,0 km/h (0 Bft) 91,49 %
22.12.2020 16:46 12,9 C 12,2 C 9,9 C 90 % 1014,6 hPa 0,0 l/m 0 min 0 min 0 W/m 0,0 km/h (0 Bft) 97,87 %
22.12.2020 16:48 12,9 C 12,2 C 9,9 C 90 % 1014,7 hPa 0,0 l/m 0 min 0 min 0 W/m 0,0 km/h (0 Bft) 97,87 %
22.12.2020 16:50 12,9 C 12,2 C 9,9 C 90 % 1014,7 hPa 0,0 l/m 0 min 0 min 0 W/m 0,0 km/h (0 Bft) 97,83 %
22.12.2020 16:52 12,9 C 12,2 C 9,9 C 90 % 1014,7 hPa 0,0 l/m 0 min 0 min 0 W/m 0,0 km/h (0 Bft) 97,87 %
22.12.2020 16:54 12,9 C 12,2 C 9,9 C 90 % 1014,8 hPa 0,0 l/m 0 min 0 min 0 W/m 0,0 km/h (0 Bft) 93,62 %
22.12.2020 16:56 12,9 C 12,2 C 9,9 C 90 % 1014,9 hPa 0,0 l/m 0 min 0 min 0 W/m 0,0 km/h (0 Bft) 100,00 %
22.12.2020 16:58 12,9 C 12,2 C 9,9 C 90 % 1014,9 hPa 0,0 l/m 0 min 0 min 0 W/m 0,0 km/h (0 Bft) 100,00 %
22.12.2020 17:00 12,9 C 12,2 C 9,9 C 90 % 1014,9 hPa 0,0 l/m 0 min 0 min 0 W/m 0,0 km/h (0 Bft) 100,00 %
22.12.2020 17:02 12,9 C 12,2 C 9,9 C 90 % 1014,9 hPa 0,0 l/m 0 min 0 min 0 W/m 0,0 km/h (0 Bft) 100,00 %
22.12.2020 17:04 12,9 C 11,7 C 9,4 C 90 % 1014,9 hPa 0,0 l/m 0 min 0 min 0 W/m 0,0 km/h (0 Bft) 100,00 %
22.12.2020 17:06 12,8 C 11,7 C 9,4 C 90 % 1014,9 hPa 0,0 l/m 0 min 0 min 0 W/m 0,0 km/h (0 Bft) 100,00 %
22.12.2020 17:08 12,8 C 11,7 C 9,4 C 90 % 1015,0 hPa 0,0 l/m 0 min 0 min 0 W/m 0,0 km/h (0 Bft) 100,00 %
22.12.2020 17:10 12,8 C 11,7 C 9,4 C 90 % 1014,9 hPa 0,0 l/m 0 min 0 min 0 W/m 0,0 km/h (0 Bft) 100,00 %
22.12.2020 17:12 12,8 C 11,7 C 9,4 C 90 % 1014,9 hPa 0,0 l/m 0 min 0 min 0 W/m 0,0 km/h (0 Bft) 100,00 %
22.12.2020 17:14 12,8 C 11,7 C 9,4 C 90 % 1014,9 hPa 0,0 l/m 0 min 0 min 0 W/m 0,0 km/h (0 Bft) 100,00 %
22.12.2020 17:16 12,8 C 11,7 C 9,4 C 91 % 1014,9 hPa 0,0 l/m 0 min 0 min 0 W/m 0,0 km/h (0 Bft) 100,00 %
22.12.2020 17:18 12,8 C 11,7 C 9,4 C 91 % 1014,9 hPa 0,0 l/m 0 min 0 min 0 W/m 0,0 km/h (0 Bft) 100,00 %
22.12.2020 17:20 12,8 C 11,7 C 9,4 C 91 % 1014,9 hPa 0,0 l/m 0 min 0 min 0 W/m 0,0 km/h (0 Bft) 100,00 %
22.12.2020 17:22 12,7 C 11,7 C 9,4 C 91 % 1014,8 hPa 0,0 l/m 0 min 0 min 0 W/m 0,0 km/h (0 Bft) 100,00 %
22.12.2020 17:24 12,7 C 11,7 C 9,4 C 91 % 1014,9 hPa 0,0 l/m 0 min 0 min 0 W/m 0,0 km/h (0 Bft) 100,00 %
22.12.2020 17:26 12,6 C 11,7 C 9,4 C 91 % 1014,8 hPa 0,0 l/m 0 min 0 min 0 W/m 0,0 km/h (0 Bft) 100,00 %
22.12.2020 17:28 12,6 C 11,7 C 9,4 C 91 % 1014,8 hPa 0,0 l/m 0 min 0 min 0 W/m 0,0 km/h (0 Bft) 100,00 %
22.12.2020 17:30 12,6 C 11,7 C 9,4 C 91 % 1014,8 hPa 0,0 l/m 0 min 0 min 0 W/m 0,0 km/h (0 Bft) 100,00 %
22.12.2020 17:32 12,6 C 11,7 C 9,4 C 91 % 1014,8 hPa 0,0 l/m 0 min 0 min 0 W/m 3,2 km/h (1 Bft) 100,00 %
22.12.2020 17:34 12,6 C 11,1 C 9,4 C 91 % 1014,7 hPa 0,0 l/m 0 min 0 min 0 W/m 0,0 km/h (0 Bft) 100,00 %
22.12.2020 17:36 12,6 C 11,1 C 9,4 C 91 % 1014,7 hPa 0,0 l/m 0 min 0 min 0 W/m 0,0 km/h (0 Bft) 97,87 %
22.12.2020 17:38 12,5 C 11,1 C 9,4 C 91 % 1014,7 hPa 0,0 l/m 0 min 0 min 0 W/m 0,0 km/h (0 Bft) 100,00 %
22.12.2020 17:40 12,5 C 11,1 C 8,8 C 91 % 1014,8 hPa 0,0 l/m 0 min 0 min 0 W/m 0,0 km/h (0 Bft) 100,00 %
22.12.2020 17:42 12,5 C 11,1 C 8,8 C 91 % 1014,8 hPa 0,0 l/m 0 min 0 min 0 W/m 0,0 km/h (0 Bft) 100,00 %
22.12.2020 17:44 12,5 C 11,1 C 8,8 C 91 % 1014,8 hPa 0,0 l/m 0 min 0 min 0 W/m 0,0 km/h (0 Bft) 97,87 %
22.12.2020 17:46 12,5 C 11,1 C 8,8 C 91 % 1014,8 hPa 0,0 l/m 0 min 0 min 0 W/m 0,0 km/h (0 Bft) 100,00 %
22.12.2020 17:48 12,5 C 11,1 C 8,8 C 91 % 1014,8 hPa 0,0 l/m 0 min 0 min 0 W/m 0,0 km/h (0 Bft) 97,83 %
22.12.2020 17:50 12,4 C 11,1 C 8,8 C 91 % 1014,8 hPa 0,0 l/m 0 min 0 min 0 W/m 0,0 km/h (0 Bft) 97,87 %
22.12.2020 17:52 12,4 C 11,1 C 8,8 C 91 % 1014,8 hPa 0,0 l/m 0 min 0 min 0 W/m 0,0 km/h (0 Bft) 100,00 %
22.12.2020 17:54 12,4 C 11,1 C 8,8 C 91 % 1014,8 hPa 0,0 l/m 0 min 0 min 0 W/m 0,0 km/h (0 Bft) 100,00 %
22.12.2020 17:56 12,4 C 11,1 C 8,8 C 92 % 1014,8 hPa 0,0 l/m 0 min 0 min 0 W/m 0,0 km/h (0 Bft) 100,00 %
22.12.2020 17:58 12,4 C 11,1 C 8,8 C 92 % 1014,8 hPa 0,0 l/m 0 min 0 min 0 W/m 0,0 km/h (0 Bft) 97,87 %
22.12.2020 18:00 12,3 C 11,1 C 8,8 C 92 % 1014,8 hPa 0,0 l/m 0 min 0 min 0 W/m 0,0 km/h (0 Bft) 97,83 %
22.12.2020 18:02 12,3 C 11,1 C 8,8 C 92 % 1014,8 hPa 0,0 l/m 0 min 0 min 0 W/m 0,0 km/h (0 Bft) 97,87 %
22.12.2020 18:04 12,3 C 11,1 C 8,8 C 92 % 1014,8 hPa 0,0 l/m 0 min 0 min 0 W/m 0,0 km/h (0 Bft) 97,87 %
22.12.2020 18:08 12,3 C 11,1 C 8,8 C 92 % 1014,8 hPa 0,0 l/m 0 min 0 min 0 W/m 0,0 km/h (0 Bft) 96,81 %
22.12.2020 18:10 12,3 C 11,1 C 8,8 C 92 % 1014,8 hPa 0,0 l/m 0 min 0 min 0 W/m 0,0 km/h (0 Bft) 97,87 %
22.12.2020 18:12 12,3 C 11,1 C 8,8 C 92 % 1014,8 hPa 0,0 l/m 0 min 0 min 0 W/m 0,0 km/h (0 Bft) 97,83 %
22.12.2020 18:14 12,2 C 11,1 C 8,8 C 92 % 1014,8 hPa 0,0 l/m 0 min 0 min 0 W/m 0,0 km/h (0 Bft) 97,87 %
22.12.2020 18:16 12,2 C 11,1 C 8,8 C 92 % 1014,8 hPa 0,0 l/m 0 min 0 min 0 W/m 0,0 km/h (0 Bft) 95,74 %
22.12.2020 18:18 12,2 C 11,1 C 8,8 C 92 % 1014,8 hPa 0,0 l/m 0 min 0 min 0 W/m 0,0 km/h (0 Bft) 97,87 %
22.12.2020 18:20 12,2 C 11,1 C 8,8 C 92 % 1014,8 hPa 0,0 l/m 0 min 0 min 0 W/m 0,0 km/h (0 Bft) 97,87 %
22.12.2020 18:22 12,1 C 11,1 C 8,8 C 92 % 1014,7 hPa 0,0 l/m 0 min 0 min 0 W/m 0,0 km/h (0 Bft) 95,74 %
22.12.2020 18:24 12,1 C 11,1 C 8,8 C 92 % 1014,7 hPa 0,0 l/m 0 min 0 min 0 W/m 0,0 km/h (0 Bft) 97,83 %
22.12.2020 18:26 12,1 C 11,1 C 8,8 C 92 % 1014,7 hPa 0,0 l/m 0 min 0 min 0 W/m 0,0 km/h (0 Bft) 97,87 %
22.12.2020 18:28 12,1 C 11,1 C 8,8 C 92 % 1014,7 hPa 0,0 l/m 0 min 0 min 0 W/m 0,0 km/h (0 Bft) 97,87 %
22.12.2020 18:30 12,1 C 11,1 C 8,8 C 92 % 1014,8 hPa 0,0 l/m 0 min 0 min 0 W/m 0,0 km/h (0 Bft) 97,87 %
22.12.2020 18:32 12,1 C 11,1 C 8,8 C 92 % 1014,8 hPa 0,0 l/m 0 min 0 min 0 W/m 0,0 km/h (0 Bft) 97,87 %
22.12.2020 18:34 12,1 C 11,1 C 8,8 C 92 % 1014,7 hPa 0,0 l/m 0 min 0 min 0 W/m 0,0 km/h (0 Bft) 97,87 %
22.12.2020 18:36 12,1 C 11,1 C 8,8 C 92 % 1014,7 hPa 0,0 l/m 0 min 0 min 0 W/m 0,0 km/h (0 Bft) 96,30 %
22.12.2020 18:38 12,1 C 11,1 C 8,8 C 93 % 1014,7 hPa 0,0 l/m 0 min 0 min 0 W/m 0,0 km/h (0 Bft) 97,87 %
22.12.2020 18:40 12,0 C 11,1 C 8,8 C 92 % 1014,6 hPa 0,0 l/m 0 min 0 min 0 W/m 0,0 km/h (0 Bft) 97,87 %
22.12.2020 18:42 12,0 C 11,1 C 8,8 C 93 % 1014,7 hPa 0,0 l/m 0 min 0 min 0 W/m 0,0 km/h (0 Bft) 95,74 %
22.12.2020 18:44 12,0 C 11,1 C 8,8 C 93 % 1014,7 hPa 0,0 l/m 0 min 0 min 0 W/m 0,0 km/h (0 Bft) 100,00 %
22.12.2020 18:46 12,0 C 11,1 C 8,8 C 93 % 1014,6 hPa 0,0 l/m 0 min 0 min 0 W/m 0,0 km/h (0 Bft) 100,00 %
22.12.2020 18:48 12,0 C 11,1 C 8,8 C 93 % 1014,7 hPa 0,0 l/m 0 min 0 min 0 W/m 0,0 km/h (0 Bft) 100,00 %
22.12.2020 18:50 12,0 C 11,1 C 8,8 C 93 % 1014,7 hPa 0,0 l/m 0 min 0 min 0 W/m 0,0 km/h (0 Bft) 100,00 %
22.12.2020 18:52 12,0 C 11,1 C 8,8 C 93 % 1014,7 hPa 0,0 l/m 0 min 0 min 0 W/m 0,0 km/h (0 Bft) 100,00 %
22.12.2020 18:54 12,0 C 10,6 C 8,8 C 93 % 1014,7 hPa 0,0 l/m 0 min 0 min 0 W/m 0,0 km/h (0 Bft) 97,87 %
22.12.2020 18:56 11,9 C 10,6 C 8,8 C 93 % 1014,8 hPa 0,0 l/m 0 min 0 min 0 W/m 0,0 km/h (0 Bft) 100,00 %
22.12.2020 18:58 11,9 C 10,6 C 8,8 C 93 % 1014,8 hPa 0,0 l/m 0 min 0 min 0 W/m 0,0 km/h (0 Bft) 97,87 %
22.12.2020 19:00 11,9 C 10,6 C 8,8 C 93 % 1014,9 hPa 0,0 l/m 0 min 0 min 0 W/m 0,0 km/h (0 Bft) 97,83 %
22.12.2020 19:02 11,9 C 10,6 C 8,8 C 93 % 1014,9 hPa 0,0 l/m 0 min 0 min 0 W/m 0,0 km/h (0 Bft) 95,83 %
22.12.2020 19:04 11,9 C 10,6 C 8,8 C 93 % 1014,9 hPa 0,0 l/m 0 min 0 min 0 W/m 0,0 km/h (0 Bft) 54,55 %
22.12.2020 19:06 11,9 C 10,6 C 8,8 C 93 % 1014,9 hPa 0,0 l/m 0 min 0 min 0 W/m 0,0 km/h (0 Bft) 97,87 %
22.12.2020 19:08 11,9 C 10,6 C 8,8 C 93 % 1014,9 hPa 0,0 l/m 0 min 0 min 0 W/m 0,0 km/h (0 Bft) 98,00 %
22.12.2020 19:10 11,8 C 10,6 C 8,8 C 93 % 1015,0 hPa 0,0 l/m 0 min 0 min 0 W/m 0,0 km/h (0 Bft) 97,83 %
22.12.2020 19:12 11,8 C 10,6 C 8,8 C 93 % 1015,0 hPa 0,0 l/m 0 min 0 min 0 W/m 0,0 km/h (0 Bft) 97,87 %
22.12.2020 19:14 11,8 C 10,6 C 8,8 C 93 % 1015,0 hPa 0,0 l/m 0 min 0 min 0 W/m 0,0 km/h (0 Bft) 98,15 %
22.12.2020 19:16 11,8 C 10,6 C 8,8 C 93 % 1015,1 hPa 0,0 l/m 0 min 0 min 0 W/m 0,0 km/h (0 Bft) 95,74 %
22.12.2020 19:18 11,8 C 10,6 C 8,8 C 94 % 1015,0 hPa 0,0 l/m 0 min 0 min 0 W/m 0,0 km/h (0 Bft) 97,87 %
22.12.2020 19:20 11,8 C 10,6 C 8,8 C 94 % 1015,0 hPa 0,0 l/m 0 min 0 min 0 W/m 0,0 km/h (0 Bft) 97,87 %
22.12.2020 19:22 11,8 C 10,6 C 8,8 C 94 % 1015,0 hPa 0,0 l/m 0 min 0 min 0 W/m 0,0 km/h (0 Bft) 97,37 %
22.12.2020 19:24 11,8 C 10,6 C 8,8 C 94 % 1015,0 hPa 0,0 l/m 0 min 0 min 0 W/m 0,0 km/h (0 Bft) 95,65 %
22.12.2020 19:26 11,7 C 10,6 C 8,8 C 94 % 1014,9 hPa 0,0 l/m 0 min 0 min 0 W/m 0,0 km/h (0 Bft) 97,87 %
22.12.2020 19:28 11,7 C 10,6 C 8,8 C 94 % 1014,9 hPa 0,0 l/m 0 min 0 min 0 W/m 0,0 km/h (0 Bft) 97,87 %
22.12.2020 19:30 11,7 C 10,6 C 8,8 C 94 % 1014,9 hPa 0,0 l/m 0 min 0 min 0 W/m 0,0 km/h (0 Bft) 97,96 %
22.12.2020 19:32 11,6 C 10,6 C 8,8 C 94 % 1014,8 hPa 0,0 l/m 0 min 0 min 0 W/m 0,0 km/h (0 Bft) 95,65 %
22.12.2020 19:34 11,6 C 10,6 C 8,8 C 94 % 1014,7 hPa 0,0 l/m 0 min 0 min 0 W/m 0,0 km/h (0 Bft) 97,87 %
22.12.2020 19:36 11,6 C 10,6 C 8,8 C 94 % 1014,7 hPa 0,0 l/m 0 min 0 min 0 W/m 0,0 km/h (0 Bft) 93,62 %
22.12.2020 19:38 11,6 C 10,6 C 8,8 C 94 % 1014,7 hPa 0,0 l/m 0 min 0 min 0 W/m 0,0 km/h (0 Bft) 97,87 %
22.12.2020 19:40 11,6 C 10,6 C 8,8 C 94 % 1014,8 hPa 0,0 l/m 0 min 0 min 0 W/m 0,0 km/h (0 Bft) 97,67 %
22.12.2020 19:42 11,6 C 10,6 C 8,8 C 94 % 1014,9 hPa 0,0 l/m 0 min 0 min 0 W/m 0,0 km/h (0 Bft) 97,96 %
22.12.2020 19:44 11,5 C 10,6 C 8,8 C 94 % 1015,0 hPa 0,0 l/m 0 min 0 min 0 W/m 0,0 km/h (0 Bft) 100,00 %
22.12.2020 19:46 11,5 C 10,6 C 8,8 C 94 % 1015,0 hPa 0,0 l/m 0 min 0 min 0 W/m 0,0 km/h (0 Bft) 97,83 %
22.12.2020 19:48 11,5 C 10,6 C 8,8 C 94 % 1015,0 hPa 0,0 l/m 0 min 0 min 0 W/m 0,0 km/h (0 Bft) 100,00 %
22.12.2020 19:50 11,5 C 10,6 C 8,8 C 95 % 1015,0 hPa 0,0 l/m 0 min 0 min 0 W/m 0,0 km/h (0 Bft) 100,00 %
22.12.2020 19:52 11,5 C 10,6 C 8,8 C 95 % 1015,0 hPa 0,0 l/m 0 min 0 min 0 W/m 0,0 km/h (0 Bft) 100,00 %
22.12.2020 19:54 11,5 C 10,6 C 8,8 C 95 % 1015,0 hPa 0,0 l/m 0 min 0 min 0 W/m 0,0 km/h (0 Bft) 100,00 %
22.12.2020 19:56 11,5 C 10,6 C 8,8 C 95 % 1015,1 hPa 0,0 l/m 0 min 0 min 0 W/m 0,0 km/h (0 Bft) 97,87 %
22.12.2020 19:58 11,5 C 10,6 C 8,8 C 95 % 1015,1 hPa 0,0 l/m 0 min 0 min 0 W/m 0,0 km/h (0 Bft) 97,87 %
22.12.2020 20:00 11,5 C 10,6 C 8,8 C 95 % 1015,1 hPa 0,0 l/m 0 min 0 min 0 W/m 0,0 km/h (0 Bft) 100,00 %
22.12.2020 20:02 11,5 C 10,6 C 8,8 C 95 % 1015,0 hPa 0,0 l/m 0 min 0 min 0 W/m 0,0 km/h (0 Bft) 100,00 %
22.12.2020 20:04 11,4 C 10,6 C 8,3 C 95 % 1015,0 hPa 0,0 l/m 0 min 0 min 0 W/m 0,0 km/h (0 Bft) 100,00 %
22.12.2020 20:06 11,4 C 10,6 C 8,3 C 95 % 1015,0 hPa 0,0 l/m 0 min 2 min 0 W/m 0,0 km/h (0 Bft) 100,00 %
22.12.2020 20:08 11,4 C 10,0 C 8,3 C 95 % 1015,0 hPa 0,0 l/m 0 min 2 min 0 W/m 0,0 km/h (0 Bft) 100,00 %
22.12.2020 20:10 11,4 C 10,0 C 8,3 C 95 % 1015,0 hPa 0,0 l/m 0 min 2 min 0 W/m 0,0 km/h (0 Bft) 100,00 %
22.12.2020 20:12 11,4 C 10,0 C 8,3 C 95 % 1015,0 hPa 0,0 l/m 0 min 0 min 0 W/m 0,0 km/h (0 Bft) 100,00 %
22.12.2020 20:14 11,4 C 10,0 C 8,3 C 95 % 1014,9 hPa 0,0 l/m 0 min 0 min 0 W/m 0,0 km/h (0 Bft) 100,00 %
22.12.2020 20:16 11,4 C 10,0 C 8,3 C 95 % 1014,9 hPa 0,0 l/m 0 min 0 min 0 W/m 0,0 km/h (0 Bft) 100,00 %
22.12.2020 20:18 11,4 C 10,0 C 8,3 C 95 % 1014,9 hPa 0,0 l/m 0 min 0 min 0 W/m 0,0 km/h (0 Bft) 100,00 %
22.12.2020 20:20 11,4 C 10,0 C 8,3 C 95 % 1014,9 hPa 0,0 l/m 0 min 0 min 0 W/m 0,0 km/h (0 Bft) 100,00 %
22.12.2020 20:22 11,4 C 10,0 C 8,3 C 95 % 1014,8 hPa 0,0 l/m 0 min 2 min 0 W/m 0,0 km/h (0 Bft) 97,87 %
22.12.2020 20:24 11,3 C 10,0 C 8,3 C 95 % 1014,8 hPa 0,0 l/m 0 min 2 min 0 W/m 0,0 km/h (0 Bft) 100,00 %
22.12.2020 20:26 11,3 C 10,0 C 8,3 C 95 % 1014,8 hPa 0,0 l/m 0 min 2 min 0 W/m 0,0 km/h (0 Bft) 100,00 %
22.12.2020 20:28 11,3 C 10,0 C 8,3 C 95 % 1014,8 hPa 0,0 l/m 0 min 0 min 0 W/m 0,0 km/h (0 Bft) 100,00 %
22.12.2020 20:30 11,3 C 10,0 C 8,3 C 95 % 1014,9 hPa 0,0 l/m 0 min 0 min 0 W/m 0,0 km/h (0 Bft) 100,00 %
22.12.2020 20:32 11,3 C 10,0 C 8,3 C 95 % 1014,8 hPa 0,0 l/m 0 min 0 min 0 W/m 0,0 km/h (0 Bft) 100,00 %
22.12.2020 20:34 11,3 C 10,0 C 8,3 C 95 % 1014,8 hPa 0,0 l/m 0 min 0 min 0 W/m 0,0 km/h (0 Bft) 95,74 %
22.12.2020 20:36 11,3 C 10,0 C 8,3 C 95 % 1014,7 hPa 0,0 l/m 0 min 0 min 0 W/m 0,0 km/h (0 Bft) 95,74 %
22.12.2020 20:38 11,3 C 10,0 C 8,3 C 95 % 1014,7 hPa 0,0 l/m 0 min 0 min 0 W/m 0,0 km/h (0 Bft) 95,74 %
22.12.2020 20:40 11,2 C 10,0 C 8,3 C 95 % 1014,8 hPa 0,0 l/m 0 min 0 min 0 W/m 0,0 km/h (0 Bft) 95,74 %
22.12.2020 20:42 11,2 C 10,0 C 8,3 C 95 % 1014,7 hPa 0,0 l/m 0 min 0 min 0 W/m 0,0 km/h (0 Bft) 95,65 %
22.12.2020 20:44 11,2 C 10,0 C 8,3 C 95 % 1014,8 hPa 0,0 l/m 0 min 0 min 0 W/m 0,0 km/h (0 Bft) 93,62 %
22.12.2020 20:46 11,1 C 10,0 C 8,3 C 95 % 1014,8 hPa 0,0 l/m 0 min 0 min 0 W/m 0,0 km/h (0 Bft) 95,74 %
22.12.2020 20:48 11,1 C 10,0 C 8,3 C 95 % 1014,7 hPa 0,0 l/m 0 min 0 min 0 W/m 0,0 km/h (0 Bft) 95,74 %
22.12.2020 20:50 11,1 C 10,0 C 8,3 C 95 % 1014,8 hPa 0,0 l/m 0 min 0 min 0 W/m 0,0 km/h (0 Bft) 95,74 %
22.12.2020 20:52 11,1 C 10,0 C 8,3 C 95 % 1014,8 hPa 0,0 l/m 0 min 0 min 0 W/m 0,0 km/h (0 Bft) 95,74 %
22.12.2020 20:54 11,1 C 10,0 C 8,3 C 95 % 1014,8 hPa 0,0 l/m 0 min 0 min 0 W/m 0,0 km/h (0 Bft) 95,65 %
22.12.2020 20:56 11,1 C 10,0 C 8,3 C 95 % 1014,9 hPa 0,0 l/m 0 min 0 min 0 W/m 0,0 km/h (0 Bft) 93,62 %
22.12.2020 20:58 11,1 C 9,4 C 8,3 C 95 % 1014,9 hPa 0,0 l/m 0 min 0 min 0 W/m 0,0 km/h (0 Bft) 95,74 %
22.12.2020 21:00 11,1 C 9,4 C 8,3 C 95 % 1014,9 hPa 0,0 l/m 0 min 0 min 0 W/m 0,0 km/h (0 Bft) 93,62 %
22.12.2020 21:02 11,0 C 9,4 C 8,3 C 95 % 1014,9 hPa 0,0 l/m 0 min 0 min 0 W/m 0,0 km/h (0 Bft) 93,62 %
22.12.2020 21:04 11,0 C 10,0 C 8,3 C 95 % 1014,8 hPa 0,0 l/m 0 min 0 min 0 W/m 0,0 km/h (0 Bft) 95,74 %
22.12.2020 21:06 11,0 C 10,0 C 8,3 C 95 % 1014,7 hPa 0,0 l/m 0 min 0 min 0 W/m 0,0 km/h (0 Bft) 95,65 %
22.12.2020 21:08 11,0 C 10,0 C 8,3 C 95 % 1014,6 hPa 0,0 l/m 0 min 0 min 0 W/m 0,0 km/h (0 Bft) 95,74 %
22.12.2020 21:10 11,0 C 10,0 C 8,3 C 95 % 1014,6 hPa 0,0 l/m 0 min 0 min 0 W/m 0,0 km/h (0 Bft) 95,74 %
22.12.2020 21:12 11,0 C 10,0 C 8,3 C 95 % 1014,6 hPa 0,0 l/m 0 min 0 min 0 W/m 0,0 km/h (0 Bft) 95,74 %
22.12.2020 21:14 11,0 C 10,0 C 8,3 C 95 % 1014,5 hPa 0,0 l/m 0 min 0 min 0 W/m 0,0 km/h (0 Bft) 95,74 %
22.12.2020 21:16 11,0 C 10,0 C 8,3 C 95 % 1014,5 hPa 0,0 l/m 0 min 0 min 0 W/m 0,0 km/h (0 Bft) 95,74 %
22.12.2020 21:18 11,0 C 10,0 C 8,3 C 95 % 1014,5 hPa 0,0 l/m 0 min 0 min 0 W/m 0,0 km/h (0 Bft) 95,65 %
22.12.2020 21:20 10,9 C 10,0 C 8,3 C 95 % 1014,4 hPa 0,0 l/m 0 min 0 min 0 W/m 0,0 km/h (0 Bft) 97,87 %
22.12.2020 21:22 10,9 C 10,0 C 8,3 C 95 % 1014,4 hPa 0,0 l/m 0 min 0 min 0 W/m 0,0 km/h (0 Bft) 95,74 %
22.12.2020 21:24 10,9 C 10,0 C 8,3 C 95 % 1014,4 hPa 0,0 l/m 0 min 0 min 0 W/m 0,0 km/h (0 Bft) 97,87 %
22.12.2020 21:26 10,9 C 9,4 C 8,3 C 95 % 1014,4 hPa 0,0 l/m 0 min 0 min 0 W/m 0,0 km/h (0 Bft) 97,87 %
22.12.2020 21:28 10,9 C 9,4 C 8,3 C 95 % 1014,5 hPa 0,0 l/m 0 min 0 min 0 W/m 0,0 km/h (0 Bft) 97,87 %
22.12.2020 21:30 10,9 C 10,0 C 8,3 C 95 % 1014,5 hPa 0,0 l/m 0 min 0 min 0 W/m 0,0 km/h (0 Bft) 95,56 %
22.12.2020 21:32 10,9 C 9,4 C 8,3 C 95 % 1014,4 hPa 0,0 l/m 0 min 0 min 0 W/m 0,0 km/h (0 Bft) 97,87 %
22.12.2020 21:34 10,9 C 10,0 C 8,3 C 95 % 1014,4 hPa 0,0 l/m 0 min 0 min 0 W/m 0,0 km/h (0 Bft) 100,00 %
22.12.2020 21:36 10,9 C 10,0 C 8,3 C 95 % 1014,3 hPa 0,0 l/m 0 min 0 min 0 W/m 0,0 km/h (0 Bft) 97,87 %
22.12.2020 21:38 10,9 C 10,0 C 8,3 C 95 % 1014,4 hPa 0,0 l/m 0 min 0 min 0 W/m 0,0 km/h (0 Bft) 97,87 %
22.12.2020 21:40 10,9 C 10,0 C 8,3 C 95 % 1014,5 hPa 0,0 l/m 0 min 0 min 0 W/m 0,0 km/h (0 Bft) 100,00 %
22.12.2020 21:42 10,9 C 10,0 C 8,3 C 95 % 1014,5 hPa 0,0 l/m 0 min 0 min 0 W/m 0,0 km/h (0 Bft) 97,83 %
22.12.2020 21:44 10,9 C 10,0 C 8,3 C 95 % 1014,5 hPa 0,0 l/m 0 min 0 min 0 W/m 0,0 km/h (0 Bft) 97,87 %
22.12.2020 21:47 10,8 C 10,0 C 8,3 C 95 % 1014,5 hPa 0,0 l/m 0 min 0 min 0 W/m 0,0 km/h (0 Bft) 97,14 %
22.12.2020 21:48 10,8 C 10,0 C 8,3 C 95 % 1014,5 hPa 0,0 l/m 0 min 0 min 0 W/m 0,0 km/h (0 Bft) 95,83 %
22.12.2020 21:50 10,8 C 9,4 C 8,3 C 95 % 1014,5 hPa 0,0 l/m 0 min 0 min 0 W/m 0,0 km/h (0 Bft) 95,74 %
22.12.2020 21:52 10,8 C 9,4 C 8,3 C 95 % 1014,5 hPa 0,0 l/m 0 min 0 min 0 W/m 0,0 km/h (0 Bft) 93,62 %
22.12.2020 21:54 10,8 C 9,4 C 8,3 C 95 % 1014,6 hPa 0,0 l/m 0 min 0 min 0 W/m 0,0 km/h (0 Bft) 95,74 %
22.12.2020 21:56 10,8 C 9,4 C 8,3 C 96 % 1014,6 hPa 0,0 l/m 0 min 0 min 0 W/m 0,0 km/h (0 Bft) 93,62 %
22.12.2020 21:58 10,8 C 9,4 C 8,3 C 96 % 1014,6 hPa 0,0 l/m 0 min 0 min 0 W/m 0,0 km/h (0 Bft) 95,74 %
22.12.2020 22:00 10,8 C 9,4 C 8,3 C 96 % 1014,6 hPa 0,0 l/m 0 min 0 min 0 W/m 0,0 km/h (0 Bft) 95,74 %
22.12.2020 22:02 10,8 C 9,4 C 8,3 C 96 % 1014,6 hPa 0,0 l/m 0 min 0 min 0 W/m 0,0 km/h (0 Bft) 95,74 %
22.12.2020 22:04 10,8 C 9,4 C 8,3 C 96 % 1014,6 hPa 0,0 l/m 0 min 0 min 0 W/m 0,0 km/h (0 Bft) 95,65 %
22.12.2020 22:06 10,8 C 9,4 C 8,3 C 96 % 1014,5 hPa 0,0 l/m 0 min 0 min 0 W/m 0,0 km/h (0 Bft) 95,74 %
22.12.2020 22:08 10,8 C 9,4 C 8,3 C 96 % 1014,5 hPa 0,0 l/m 0 min 0 min 0 W/m 0,0 km/h (0 Bft) 95,74 %
22.12.2020 22:10 10,8 C 10,0 C 8,3 C 96 % 1014,5 hPa 0,0 l/m 0 min 0 min 0 W/m 0,0 km/h (0 Bft) 95,74 %
22.12.2020 22:12 10,8 C 10,0 C 8,3 C 96 % 1014,5 hPa 0,0 l/m 0 min 0 min 0 W/m 0,0 km/h (0 Bft) 93,62 %
22.12.2020 22:14 10,8 C 10,0 C 8,3 C 96 % 1014,6 hPa 0,0 l/m 0 min 0 min 0 W/m 0,0 km/h (0 Bft) 95,74 %
22.12.2020 22:16 10,8 C 10,0 C 8,3 C 96 % 1014,6 hPa 0,0 l/m 0 min 0 min 0 W/m 0,0 km/h (0 Bft) 95,65 %
22.12.2020 22:18 10,7 C 10,0 C 8,3 C 96 % 1014,6 hPa 0,0 l/m 0 min 0 min 0 W/m 0,0 km/h (0 Bft) 95,74 %
22.12.2020 22:20 10,7 C 10,0 C 8,3 C 96 % 1014,6 hPa 0,0 l/m 0 min 0 min 0 W/m 0,0 km/h (0 Bft) 95,74 %
22.12.2020 22:22 10,7 C 10,0 C 8,3 C 96 % 1014,6 hPa 0,2 l/m 0 min 2 min 0 W/m 0,0 km/h (0 Bft) 95,74 %
22.12.2020 22:24 10,8 C 10,0 C 8,3 C 96 % 1014,6 hPa 0,0 l/m 0 min 2 min 0 W/m 0,0 km/h (0 Bft) 95,74 %
22.12.2020 22:26 10,8 C 10,0 C 8,3 C 96 % 1014,6 hPa 0,0 l/m 0 min 2 min 0 W/m 0,0 km/h (0 Bft) 93,62 %
22.12.2020 22:28 10,8 C 10,0 C 8,3 C 96 % 1014,6 hPa 0,0 l/m 0 min 2 min 0 W/m 0,0 km/h (0 Bft) 95,65 %
22.12.2020 22:30 10,8 C 10,0 C 8,3 C 96 % 1014,5 hPa 0,0 l/m 0 min 2 min 0 W/m 0,0 km/h (0 Bft) 97,87 %
22.12.2020 22:32 10,8 C 10,0 C 8,3 C 96 % 1014,5 hPa 0,0 l/m 0 min 2 min 0 W/m 0,0 km/h (0 Bft) 97,92 %
22.12.2020 22:34 10,8 C 10,0 C 8,3 C 96 % 1014,4 hPa 0,2 l/m 0 min 2 min 0 W/m 0,0 km/h (0 Bft) 100,00 %
22.12.2020 22:36 10,8 C 10,0 C 8,3 C 96 % 1014,4 hPa 0,0 l/m 0 min 2 min 0 W/m 0,0 km/h (0 Bft) 100,00 %
22.12.2020 22:38 10,8 C 10,0 C 8,3 C 96 % 1014,5 hPa 0,0 l/m 0 min 2 min 0 W/m 0,0 km/h (0 Bft) 100,00 %
22.12.2020 22:40 10,9 C 10,0 C 8,3 C 96 % 1014,5 hPa 0,0 l/m 0 min 0 min 0 W/m 0,0 km/h (0 Bft) 97,22 %
22.12.2020 22:42 10,9 C 10,0 C 8,3 C 96 % 1014,5 hPa 0,0 l/m 0 min 2 min 0 W/m 0,0 km/h (0 Bft) 100,00 %
22.12.2020 22:44 10,9 C 10,0 C 8,3 C 96 % 1014,6 hPa 0,0 l/m 0 min 2 min 0 W/m 0,0 km/h (0 Bft) 97,87 %
22.12.2020 22:46 10,9 C 10,0 C 8,3 C 96 % 1014,6 hPa 0,0 l/m 0 min 0 min 0 W/m 0,0 km/h (0 Bft) 100,00 %
22.12.2020 22:48 10,9 C 10,0 C 8,3 C 96 % 1014,6 hPa 0,0 l/m 0 min 2 min 0 W/m 0,0 km/h (0 Bft) 100,00 %
22.12.2020 22:50 10,9 C 10,0 C 8,3 C 96 % 1014,6 hPa 0,0 l/m 0 min 2 min 0 W/m 0,0 km/h (0 Bft) 100,00 %
22.12.2020 22:52 10,9 C 10,0 C 8,3 C 96 % 1014,6 hPa 0,0 l/m 0 min 2 min 0 W/m 0,0 km/h (0 Bft) 100,00 %
22.12.2020 22:54 10,9 C 10,0 C 8,3 C 96 % 1014,6 hPa 0,0 l/m 0 min 2 min 0 W/m 0,0 km/h (0 Bft) 100,00 %
22.12.2020 22:56 10,9 C 10,0 C 8,3 C 97 % 1014,7 hPa 0,2 l/m 0 min 2 min 0 W/m 0,0 km/h (0 Bft) 100,00 %
22.12.2020 22:58 10,9 C 10,0 C 8,3 C 97 % 1014,7 hPa 0,0 l/m 0 min 2 min 0 W/m 0,0 km/h (0 Bft) 97,87 %
22.12.2020 23:00 10,9 C 10,0 C 8,3 C 97 % 1014,7 hPa 0,0 l/m 0 min 2 min 0 W/m 0,0 km/h (0 Bft) 97,87 %
22.12.2020 23:02 11,0 C 10,0 C 8,3 C 97 % 1014,7 hPa 0,0 l/m 0 min 2 min 0 W/m 0,0 km/h (0 Bft) 100,00 %
22.12.2020 23:04 11,0 C 10,0 C 8,3 C 97 % 1014,7 hPa 0,0 l/m 0 min 2 min 0 W/m 0,0 km/h (0 Bft) 100,00 %
22.12.2020 23:06 11,0 C 10,0 C 8,3 C 97 % 1014,7 hPa 0,0 l/m 0 min 2 min 0 W/m 0,0 km/h (0 Bft) 100,00 %
22.12.2020 23:08 11,0 C 10,0 C 8,3 C 97 % 1014,7 hPa 0,0 l/m 0 min 2 min 0 W/m 0,0 km/h (0 Bft) 98,31 %
22.12.2020 23:10 11,0 C 10,0 C 8,8 C 97 % 1014,7 hPa 0,0 l/m 0 min 2 min 0 W/m 0,0 km/h (0 Bft) 97,14 %
22.12.2020 23:12 11,1 C 10,0 C 8,8 C 97 % 1014,7 hPa 0,0 l/m 0 min 2 min 0 W/m 0,0 km/h (0 Bft) 97,87 %
22.12.2020 23:14 11,1 C 10,0 C 8,8 C 97 % 1014,7 hPa 0,0 l/m 0 min 2 min 0 W/m 0,0 km/h (0 Bft) 95,74 %
22.12.2020 23:16 11,1 C 10,6 C 8,8 C 97 % 1014,7 hPa 0,2 l/m 0 min 2 min 0 W/m 0,0 km/h (0 Bft) 95,74 %
22.12.2020 23:18 11,1 C 10,6 C 8,8 C 97 % 1014,7 hPa 0,0 l/m 0 min 2 min 0 W/m 0,0 km/h (0 Bft) 95,74 %
22.12.2020 23:20 11,1 C 10,6 C 8,8 C 97 % 1014,7 hPa 0,0 l/m 0 min 2 min 0 W/m 0,0 km/h (0 Bft) 95,74 %
22.12.2020 23:22 11,1 C 10,6 C 8,8 C 97 % 1014,6 hPa 0,0 l/m 0 min 2 min 0 W/m 0,0 km/h (0 Bft) 97,87 %
22.12.2020 23:24 11,1 C 10,6 C 8,8 C 97 % 1014,6 hPa 0,0 l/m 0 min 2 min 0 W/m 0,0 km/h (0 Bft) 76,60 %
22.12.2020 23:26 11,2 C 10,6 C 8,8 C 97 % 1014,6 hPa 0,0 l/m 0 min 2 min 0 W/m 0,0 km/h (0 Bft) 73,81 %
22.12.2020 23:28 11,2 C 10,6 C 8,8 C 97 % 1014,7 hPa 0,0 l/m 0 min 0 min 0 W/m 0,0 km/h (0 Bft) 97,83 %
22.12.2020 23:30 11,3 C 10,6 C 8,8 C 98 % 1014,7 hPa 0,0 l/m 0 min 2 min 0 W/m 0,0 km/h (0 Bft) 97,87 %
22.12.2020 23:32 11,3 C 10,6 C 8,8 C 97 % 1014,7 hPa 0,2 l/m 0 min 0 min 0 W/m 0,0 km/h (0 Bft) 98,04 %
22.12.2020 23:34 11,3 C 10,6 C 8,8 C 98 % 1014,7 hPa 0,0 l/m 0 min 0 min 0 W/m 3,2 km/h (1 Bft) 97,87 %
22.12.2020 23:36 11,3 C 10,6 C 8,8 C 98 % 1014,8 hPa 0,0 l/m 0 min 0 min 0 W/m 0,0 km/h (0 Bft) 97,87 %
22.12.2020 23:38 11,4 C 10,6 C 8,8 C 98 % 1014,7 hPa 0,0 l/m 0 min 0 min 0 W/m 0,0 km/h (0 Bft) 97,87 %
22.12.2020 23:40 11,4 C 10,6 C 8,8 C 98 % 1014,8 hPa 0,0 l/m 0 min 0 min 0 W/m 0,0 km/h (0 Bft) 97,83 %
22.12.2020 23:42 11,4 C 10,6 C 8,8 C 98 % 1014,8 hPa 0,0 l/m 0 min 0 min 0 W/m 0,0 km/h (0 Bft) 97,87 %
22.12.2020 23:44 11,4 C 10,6 C 8,8 C 98 % 1014,7 hPa 0,0 l/m 0 min 0 min 0 W/m 0,0 km/h (0 Bft) 97,87 %
22.12.2020 23:46 11,4 C 10,6 C 8,8 C 98 % 1014,6 hPa 0,0 l/m 0 min 0 min 0 W/m 0,0 km/h (0 Bft) 95,74 %
22.12.2020 23:48 11,4 C 10,6 C 8,8 C 98 % 1014,6 hPa 0,0 l/m 0 min 0 min 0 W/m 0,0 km/h (0 Bft) 95,74 %
22.12.2020 23:50 11,4 C 10,6 C 8,8 C 98 % 1014,5 hPa 0,0 l/m 0 min 0 min 0 W/m 0,0 km/h (0 Bft) 97,83 %
22.12.2020 23:52 11,4 C 10,6 C 8,8 C 98 % 1014,5 hPa 0,0 l/m 0 min 0 min 0 W/m 0,0 km/h (0 Bft) 97,87 %
22.12.2020 23:54 11,4 C 10,6 C 8,8 C 98 % 1014,5 hPa 0,0 l/m 0 min 0 min 0 W/m 0,0 km/h (0 Bft) 100,00 %
22.12.2020 23:56 11,4 C 10,6 C 8,8 C 98 % 1014,5 hPa 0,0 l/m 0 min 0 min 0 W/m 0,0 km/h (0 Bft) 100,00 %
22.12.2020 23:58 11,4 C 10,6 C 8,8 C 98 % 1014,6 hPa 0,0 l/m 0 min 0 min 0 W/m 0,0 km/h (0 Bft) 100,00 %
_ Min-Zeit 22:18 20:58 20:04 13:22 01:38 - - - - 11:30 19:04
Minimum _ 10,7 C 9,4 C 8,3 C 85 % 1008,1 hPa - - - - 0,0 km/h (0 Bft) 54,55 %
_ Max-Zeit 12:42 12:30 12:32 00:00 19:16 00:08 10:38 00:08 12:38 04:14 00:00
Maximum _ 14,6 C 17,2 C 13,8 C 100 % 1015,1 hPa 0,2 l/m 2 min 4 min 371 W/m 90,1 km/h
SO (10 Bft)
100,00 %
Durchschnitt _ 12,9 C 12,2 C 10,4 C 93 % 1012,1 hPa #1,2 l/m #1:06 h #2:26 h 78 W/m 21,9 km/h (4 Bft) 97,48 %
© 2020 W. Hausmann